<?xml version="1.0" encoding="UTF-8" standalone="no" ?>
<gpx xmlns="http://www.topografix.com/GPX/1/1" xmlns:xsi="http://www.w3.org/2001/XMLSchema-instance" xsi:schemaLocation="http://www.topografix.com/GPX/1/1 http://www.topografix.com/GPX/1/1/gpx.xsd" version="1.1" creator="VisuGPX - https://www.visugpx.com">
  <metadata>
    <name>extra pas des betes</name>
  </metadata>
  <trk>
    <name><![CDATA[Mazamet - Augmontel extra]]></name>
    <extensions>
      <line xmlns="http://www.topografix.com/GPX/gpx_style/0/2">
        <color>0000FF</color>
        <width>4</width>
      </line>
    </extensions>
    <trkseg>
      <trkpt lat="43.5402" lon="2.39538">
        <ele>477.4</ele>
        <time>2021-11-28T10:31:33Z</time>
      </trkpt>
      <trkpt lat="43.54012" lon="2.39524">
        <ele>476.3</ele>
        <time>2021-11-28T10:31:35Z</time>
      </trkpt>
      <trkpt lat="43.54007" lon="2.39517">
        <ele>475.8</ele>
        <time>2021-11-28T10:31:36Z</time>
      </trkpt>
      <trkpt lat="43.53996" lon="2.39501">
        <ele>474.4</ele>
        <time>2021-11-28T10:31:38Z</time>
      </trkpt>
      <trkpt lat="43.53985" lon="2.39485">
        <ele>472.9</ele>
        <time>2021-11-28T10:31:40Z</time>
      </trkpt>
      <trkpt lat="43.53979" lon="2.39477">
        <ele>472.2</ele>
        <time>2021-11-28T10:31:41Z</time>
      </trkpt>
      <trkpt lat="43.53967" lon="2.3946">
        <ele>470.8</ele>
        <time>2021-11-28T10:31:43Z</time>
      </trkpt>
      <trkpt lat="43.53961" lon="2.39452">
        <ele>470.2</ele>
        <time>2021-11-28T10:31:44Z</time>
      </trkpt>
      <trkpt lat="43.53951" lon="2.3944">
        <ele>469.3</ele>
        <time>2021-11-28T10:31:46Z</time>
      </trkpt>
      <trkpt lat="43.53947" lon="2.39435">
        <ele>468.9</ele>
        <time>2021-11-28T10:31:47Z</time>
      </trkpt>
      <trkpt lat="43.5394" lon="2.39425">
        <ele>468.2</ele>
        <time>2021-11-28T10:31:49Z</time>
      </trkpt>
      <trkpt lat="43.53938" lon="2.39422">
        <ele>468</ele>
        <time>2021-11-28T10:31:50Z</time>
      </trkpt>
      <trkpt lat="43.53934" lon="2.39418">
        <ele>467.8</ele>
        <time>2021-11-28T10:31:51Z</time>
      </trkpt>
      <trkpt lat="43.53931" lon="2.39412">
        <ele>467.5</ele>
        <time>2021-11-28T10:31:52Z</time>
      </trkpt>
      <trkpt lat="43.53929" lon="2.39404">
        <ele>466.9</ele>
        <time>2021-11-28T10:31:53Z</time>
      </trkpt>
      <trkpt lat="43.53925" lon="2.39391">
        <ele>466.4</ele>
        <time>2021-11-28T10:31:55Z</time>
      </trkpt>
      <trkpt lat="43.53927" lon="2.39387">
        <ele>466.2</ele>
        <time>2021-11-28T10:31:56Z</time>
      </trkpt>
      <trkpt lat="43.53927" lon="2.39384">
        <ele>466.2</ele>
        <time>2021-11-28T10:31:57Z</time>
      </trkpt>
      <trkpt lat="43.53926" lon="2.3938">
        <ele>466.1</ele>
        <time>2021-11-28T10:31:59Z</time>
      </trkpt>
      <trkpt lat="43.53924" lon="2.39374">
        <ele>465.9</ele>
        <time>2021-11-28T10:32:01Z</time>
      </trkpt>
      <trkpt lat="43.53922" lon="2.39368">
        <ele>465.8</ele>
        <time>2021-11-28T10:32:02Z</time>
      </trkpt>
      <trkpt lat="43.5392" lon="2.39361">
        <ele>464.2</ele>
        <time>2021-11-28T10:32:03Z</time>
      </trkpt>
      <trkpt lat="43.53919" lon="2.39354">
        <ele>463.9</ele>
        <time>2021-11-28T10:32:05Z</time>
      </trkpt>
      <trkpt lat="43.53914" lon="2.39346">
        <ele>463.4</ele>
        <time>2021-11-28T10:32:06Z</time>
      </trkpt>
      <trkpt lat="43.53908" lon="2.39344">
        <ele>463.1</ele>
        <time>2021-11-28T10:32:08Z</time>
      </trkpt>
      <trkpt lat="43.53903" lon="2.39343">
        <ele>462.8</ele>
        <time>2021-11-28T10:32:10Z</time>
      </trkpt>
      <trkpt lat="43.53898" lon="2.3934">
        <ele>462.5</ele>
        <time>2021-11-28T10:32:11Z</time>
      </trkpt>
      <trkpt lat="43.53893" lon="2.39333">
        <ele>462.1</ele>
        <time>2021-11-28T10:32:12Z</time>
      </trkpt>
      <trkpt lat="43.53885" lon="2.39322">
        <ele>461.5</ele>
        <time>2021-11-28T10:32:14Z</time>
      </trkpt>
      <trkpt lat="43.53877" lon="2.39313">
        <ele>461</ele>
        <time>2021-11-28T10:32:16Z</time>
      </trkpt>
      <trkpt lat="43.53878" lon="2.39308">
        <ele>460.7</ele>
        <time>2021-11-28T10:32:18Z</time>
      </trkpt>
      <trkpt lat="43.53876" lon="2.39304">
        <ele>460.3</ele>
        <time>2021-11-28T10:32:19Z</time>
      </trkpt>
      <trkpt lat="43.53874" lon="2.393">
        <ele>459.8</ele>
        <time>2021-11-28T10:32:20Z</time>
      </trkpt>
      <trkpt lat="43.53872" lon="2.39297">
        <ele>459.4</ele>
        <time>2021-11-28T10:32:22Z</time>
      </trkpt>
      <trkpt lat="43.53869" lon="2.39291">
        <ele>458.8</ele>
        <time>2021-11-28T10:32:23Z</time>
      </trkpt>
      <trkpt lat="43.53863" lon="2.39278">
        <ele>457.3</ele>
        <time>2021-11-28T10:32:25Z</time>
      </trkpt>
      <trkpt lat="43.5386" lon="2.39271">
        <ele>456.5</ele>
        <time>2021-11-28T10:32:26Z</time>
      </trkpt>
      <trkpt lat="43.53856" lon="2.39262">
        <ele>455.3</ele>
        <time>2021-11-28T10:32:28Z</time>
      </trkpt>
      <trkpt lat="43.53854" lon="2.39257">
        <ele>454.8</ele>
        <time>2021-11-28T10:32:29Z</time>
      </trkpt>
      <trkpt lat="43.53852" lon="2.39253">
        <ele>454.2</ele>
        <time>2021-11-28T10:32:30Z</time>
      </trkpt>
      <trkpt lat="43.53848" lon="2.39242">
        <ele>452.8</ele>
        <time>2021-11-28T10:32:32Z</time>
      </trkpt>
      <trkpt lat="43.53844" lon="2.39226">
        <ele>451.2</ele>
        <time>2021-11-28T10:32:34Z</time>
      </trkpt>
      <trkpt lat="43.53841" lon="2.39211">
        <ele>450.2</ele>
        <time>2021-11-28T10:32:36Z</time>
      </trkpt>
      <trkpt lat="43.53839" lon="2.39199">
        <ele>449.5</ele>
        <time>2021-11-28T10:32:38Z</time>
      </trkpt>
      <trkpt lat="43.53837" lon="2.39191">
        <ele>449.2</ele>
        <time>2021-11-28T10:32:40Z</time>
      </trkpt>
      <trkpt lat="43.53836" lon="2.39184">
        <ele>448.9</ele>
        <time>2021-11-28T10:32:41Z</time>
      </trkpt>
      <trkpt lat="43.53835" lon="2.39175">
        <ele>448.6</ele>
        <time>2021-11-28T10:32:42Z</time>
      </trkpt>
      <trkpt lat="43.53834" lon="2.39171">
        <ele>448.5</ele>
        <time>2021-11-28T10:32:43Z</time>
      </trkpt>
      <trkpt lat="43.53833" lon="2.39166">
        <ele>448.4</ele>
        <time>2021-11-28T10:32:44Z</time>
      </trkpt>
      <trkpt lat="43.53832" lon="2.39163">
        <ele>448.3</ele>
        <time>2021-11-28T10:32:45Z</time>
      </trkpt>
      <trkpt lat="43.53831" lon="2.39152">
        <ele>448.2</ele>
        <time>2021-11-28T10:32:47Z</time>
      </trkpt>
      <trkpt lat="43.53829" lon="2.39147">
        <ele>448.1</ele>
        <time>2021-11-28T10:32:48Z</time>
      </trkpt>
      <trkpt lat="43.53826" lon="2.39145">
        <ele>448.1</ele>
        <time>2021-11-28T10:32:49Z</time>
      </trkpt>
      <trkpt lat="43.53823" lon="2.39147">
        <ele>448.1</ele>
        <time>2021-11-28T10:32:51Z</time>
      </trkpt>
      <trkpt lat="43.53822" lon="2.39148">
        <ele>448.1</ele>
        <time>2021-11-28T10:32:52Z</time>
      </trkpt>
      <trkpt lat="43.53817" lon="2.39148">
        <ele>448</ele>
        <time>2021-11-28T10:32:53Z</time>
      </trkpt>
      <trkpt lat="43.53813" lon="2.39148">
        <ele>448</ele>
        <time>2021-11-28T10:32:54Z</time>
      </trkpt>
      <trkpt lat="43.5381" lon="2.39148">
        <ele>448</ele>
        <time>2021-11-28T10:32:56Z</time>
      </trkpt>
      <trkpt lat="43.53806" lon="2.39148">
        <ele>448</ele>
        <time>2021-11-28T10:32:57Z</time>
      </trkpt>
      <trkpt lat="43.538" lon="2.39149">
        <ele>447.9</ele>
        <time>2021-11-28T10:32:58Z</time>
      </trkpt>
      <trkpt lat="43.53797" lon="2.3915">
        <ele>447.9</ele>
        <time>2021-11-28T10:33:00Z</time>
      </trkpt>
      <trkpt lat="43.53794" lon="2.3915">
        <ele>447.9</ele>
        <time>2021-11-28T10:33:01Z</time>
      </trkpt>
      <trkpt lat="43.53789" lon="2.39151">
        <ele>447.9</ele>
        <time>2021-11-28T10:33:03Z</time>
      </trkpt>
      <trkpt lat="43.53786" lon="2.39152">
        <ele>447.9</ele>
        <time>2021-11-28T10:33:04Z</time>
      </trkpt>
      <trkpt lat="43.53781" lon="2.39154">
        <ele>448</ele>
        <time>2021-11-28T10:33:05Z</time>
      </trkpt>
      <trkpt lat="43.53777" lon="2.39154">
        <ele>448</ele>
        <time>2021-11-28T10:33:06Z</time>
      </trkpt>
      <trkpt lat="43.53771" lon="2.39155">
        <ele>448.2</ele>
        <time>2021-11-28T10:33:07Z</time>
      </trkpt>
      <trkpt lat="43.53766" lon="2.39156">
        <ele>448.3</ele>
        <time>2021-11-28T10:33:08Z</time>
      </trkpt>
      <trkpt lat="43.53762" lon="2.39156">
        <ele>448.4</ele>
        <time>2021-11-28T10:33:09Z</time>
      </trkpt>
      <trkpt lat="43.53758" lon="2.39156">
        <ele>448.5</ele>
        <time>2021-11-28T10:33:11Z</time>
      </trkpt>
      <trkpt lat="43.53755" lon="2.39157">
        <ele>448.6</ele>
        <time>2021-11-28T10:33:12Z</time>
      </trkpt>
      <trkpt lat="43.53744" lon="2.39159">
        <ele>448.9</ele>
        <time>2021-11-28T10:33:14Z</time>
      </trkpt>
      <trkpt lat="43.53733" lon="2.39161">
        <ele>449.3</ele>
        <time>2021-11-28T10:33:15Z</time>
      </trkpt>
      <trkpt lat="43.53726" lon="2.39163">
        <ele>449.5</ele>
        <time>2021-11-28T10:33:16Z</time>
      </trkpt>
      <trkpt lat="43.53721" lon="2.39164">
        <ele>449.6</ele>
        <time>2021-11-28T10:33:17Z</time>
      </trkpt>
      <trkpt lat="43.53717" lon="2.39164">
        <ele>449.6</ele>
        <time>2021-11-28T10:33:18Z</time>
      </trkpt>
      <trkpt lat="43.53711" lon="2.39166">
        <ele>449.7</ele>
        <time>2021-11-28T10:33:20Z</time>
      </trkpt>
      <trkpt lat="43.53703" lon="2.39167">
        <ele>449.8</ele>
        <time>2021-11-28T10:33:22Z</time>
      </trkpt>
      <trkpt lat="43.53699" lon="2.39167">
        <ele>449.8</ele>
        <time>2021-11-28T10:33:23Z</time>
      </trkpt>
      <trkpt lat="43.53693" lon="2.39168">
        <ele>449.8</ele>
        <time>2021-11-28T10:33:25Z</time>
      </trkpt>
      <trkpt lat="43.5369" lon="2.39169">
        <ele>449.8</ele>
        <time>2021-11-28T10:33:26Z</time>
      </trkpt>
      <trkpt lat="43.53683" lon="2.3917">
        <ele>449.9</ele>
        <time>2021-11-28T10:33:28Z</time>
      </trkpt>
      <trkpt lat="43.53676" lon="2.39172">
        <ele>449.9</ele>
        <time>2021-11-28T10:33:30Z</time>
      </trkpt>
      <trkpt lat="43.5367" lon="2.39174">
        <ele>449.9</ele>
        <time>2021-11-28T10:33:31Z</time>
      </trkpt>
      <trkpt lat="43.53662" lon="2.39175">
        <ele>449.9</ele>
        <time>2021-11-28T10:33:32Z</time>
      </trkpt>
      <trkpt lat="43.53653" lon="2.39177">
        <ele>450</ele>
        <time>2021-11-28T10:33:34Z</time>
      </trkpt>
      <trkpt lat="43.53642" lon="2.39179">
        <ele>449.9</ele>
        <time>2021-11-28T10:33:36Z</time>
      </trkpt>
      <trkpt lat="43.53638" lon="2.3918">
        <ele>449.9</ele>
        <time>2021-11-28T10:33:37Z</time>
      </trkpt>
      <trkpt lat="43.53628" lon="2.39181">
        <ele>449.9</ele>
        <time>2021-11-28T10:33:39Z</time>
      </trkpt>
      <trkpt lat="43.53621" lon="2.39182">
        <ele>449.8</ele>
        <time>2021-11-28T10:33:40Z</time>
      </trkpt>
      <trkpt lat="43.53603" lon="2.39187">
        <ele>449.4</ele>
        <time>2021-11-28T10:33:41Z</time>
      </trkpt>
      <trkpt lat="43.53585" lon="2.3919">
        <ele>448.9</ele>
        <time>2021-11-28T10:33:43Z</time>
      </trkpt>
      <trkpt lat="43.53572" lon="2.3919">
        <ele>448.4</ele>
        <time>2021-11-28T10:33:45Z</time>
      </trkpt>
      <trkpt lat="43.5356" lon="2.3919">
        <ele>447.9</ele>
        <time>2021-11-28T10:33:47Z</time>
      </trkpt>
      <trkpt lat="43.5355" lon="2.39187">
        <ele>447.5</ele>
        <time>2021-11-28T10:33:49Z</time>
      </trkpt>
      <trkpt lat="43.53539" lon="2.39186">
        <ele>446.9</ele>
        <time>2021-11-28T10:33:51Z</time>
      </trkpt>
      <trkpt lat="43.53527" lon="2.39185">
        <ele>446.4</ele>
        <time>2021-11-28T10:33:53Z</time>
      </trkpt>
      <trkpt lat="43.53521" lon="2.39183">
        <ele>446.2</ele>
        <time>2021-11-28T10:33:54Z</time>
      </trkpt>
      <trkpt lat="43.5351" lon="2.39179">
        <ele>445.7</ele>
        <time>2021-11-28T10:33:56Z</time>
      </trkpt>
      <trkpt lat="43.53499" lon="2.39175">
        <ele>445.2</ele>
        <time>2021-11-28T10:33:58Z</time>
      </trkpt>
      <trkpt lat="43.53493" lon="2.39173">
        <ele>445</ele>
        <time>2021-11-28T10:33:59Z</time>
      </trkpt>
      <trkpt lat="43.53482" lon="2.39168">
        <ele>444.6</ele>
        <time>2021-11-28T10:34:01Z</time>
      </trkpt>
      <trkpt lat="43.5347" lon="2.39165">
        <ele>444.2</ele>
        <time>2021-11-28T10:34:03Z</time>
      </trkpt>
      <trkpt lat="43.5346" lon="2.39161">
        <ele>443.8</ele>
        <time>2021-11-28T10:34:05Z</time>
      </trkpt>
      <trkpt lat="43.53454" lon="2.39159">
        <ele>443.6</ele>
        <time>2021-11-28T10:34:06Z</time>
      </trkpt>
      <trkpt lat="43.53442" lon="2.39156">
        <ele>442.9</ele>
        <time>2021-11-28T10:34:08Z</time>
      </trkpt>
      <trkpt lat="43.53428" lon="2.39152">
        <ele>442.2</ele>
        <time>2021-11-28T10:34:10Z</time>
      </trkpt>
      <trkpt lat="43.53414" lon="2.39148">
        <ele>441.5</ele>
        <time>2021-11-28T10:34:12Z</time>
      </trkpt>
      <trkpt lat="43.53407" lon="2.39146">
        <ele>441.2</ele>
        <time>2021-11-28T10:34:13Z</time>
      </trkpt>
      <trkpt lat="43.53393" lon="2.39141">
        <ele>440.6</ele>
        <time>2021-11-28T10:34:15Z</time>
      </trkpt>
      <trkpt lat="43.53386" lon="2.39139">
        <ele>440.4</ele>
        <time>2021-11-28T10:34:16Z</time>
      </trkpt>
      <trkpt lat="43.53379" lon="2.39137">
        <ele>440.1</ele>
        <time>2021-11-28T10:34:17Z</time>
      </trkpt>
      <trkpt lat="43.53365" lon="2.39132">
        <ele>439.6</ele>
        <time>2021-11-28T10:34:19Z</time>
      </trkpt>
      <trkpt lat="43.53352" lon="2.39129">
        <ele>439.1</ele>
        <time>2021-11-28T10:34:21Z</time>
      </trkpt>
      <trkpt lat="43.53344" lon="2.39128">
        <ele>438.8</ele>
        <time>2021-11-28T10:34:22Z</time>
      </trkpt>
      <trkpt lat="43.5333" lon="2.39129">
        <ele>438.2</ele>
        <time>2021-11-28T10:34:24Z</time>
      </trkpt>
      <trkpt lat="43.53323" lon="2.39129">
        <ele>437.9</ele>
        <time>2021-11-28T10:34:25Z</time>
      </trkpt>
      <trkpt lat="43.53308" lon="2.39131">
        <ele>437.3</ele>
        <time>2021-11-28T10:34:27Z</time>
      </trkpt>
      <trkpt lat="43.53301" lon="2.39132">
        <ele>437</ele>
        <time>2021-11-28T10:34:28Z</time>
      </trkpt>
      <trkpt lat="43.53287" lon="2.39136">
        <ele>436.9</ele>
        <time>2021-11-28T10:34:30Z</time>
      </trkpt>
      <trkpt lat="43.5328" lon="2.3914">
        <ele>436.9</ele>
        <time>2021-11-28T10:34:31Z</time>
      </trkpt>
      <trkpt lat="43.53269" lon="2.39149">
        <ele>437.1</ele>
        <time>2021-11-28T10:34:33Z</time>
      </trkpt>
      <trkpt lat="43.5326" lon="2.39153">
        <ele>437.2</ele>
        <time>2021-11-28T10:34:35Z</time>
      </trkpt>
      <trkpt lat="43.53254" lon="2.39154">
        <ele>437.1</ele>
        <time>2021-11-28T10:34:36Z</time>
      </trkpt>
      <trkpt lat="43.53248" lon="2.39155">
        <ele>437</ele>
        <time>2021-11-28T10:34:37Z</time>
      </trkpt>
      <trkpt lat="43.53235" lon="2.39156">
        <ele>436.8</ele>
        <time>2021-11-28T10:34:39Z</time>
      </trkpt>
      <trkpt lat="43.53224" lon="2.39153">
        <ele>436.5</ele>
        <time>2021-11-28T10:34:41Z</time>
      </trkpt>
      <trkpt lat="43.53219" lon="2.39152">
        <ele>436.3</ele>
        <time>2021-11-28T10:34:42Z</time>
      </trkpt>
      <trkpt lat="43.53208" lon="2.39148">
        <ele>435.8</ele>
        <time>2021-11-28T10:34:44Z</time>
      </trkpt>
      <trkpt lat="43.53202" lon="2.39146">
        <ele>435.5</ele>
        <time>2021-11-28T10:34:45Z</time>
      </trkpt>
      <trkpt lat="43.53192" lon="2.39141">
        <ele>434.8</ele>
        <time>2021-11-28T10:34:47Z</time>
      </trkpt>
      <trkpt lat="43.53182" lon="2.39133">
        <ele>433.6</ele>
        <time>2021-11-28T10:34:49Z</time>
      </trkpt>
      <trkpt lat="43.53171" lon="2.39125">
        <ele>432.2</ele>
        <time>2021-11-28T10:34:51Z</time>
      </trkpt>
      <trkpt lat="43.53165" lon="2.3912">
        <ele>431.4</ele>
        <time>2021-11-28T10:34:52Z</time>
      </trkpt>
      <trkpt lat="43.53158" lon="2.39116">
        <ele>430.7</ele>
        <time>2021-11-28T10:34:53Z</time>
      </trkpt>
      <trkpt lat="43.53144" lon="2.39106">
        <ele>429</ele>
        <time>2021-11-28T10:34:55Z</time>
      </trkpt>
      <trkpt lat="43.53128" lon="2.39094">
        <ele>427.4</ele>
        <time>2021-11-28T10:34:57Z</time>
      </trkpt>
      <trkpt lat="43.53119" lon="2.39088">
        <ele>426.6</ele>
        <time>2021-11-28T10:34:58Z</time>
      </trkpt>
      <trkpt lat="43.53103" lon="2.39075">
        <ele>424.9</ele>
        <time>2021-11-28T10:35:00Z</time>
      </trkpt>
      <trkpt lat="43.53085" lon="2.39062">
        <ele>423.1</ele>
        <time>2021-11-28T10:35:02Z</time>
      </trkpt>
      <trkpt lat="43.53075" lon="2.39055">
        <ele>422.2</ele>
        <time>2021-11-28T10:35:03Z</time>
      </trkpt>
      <trkpt lat="43.53057" lon="2.39041">
        <ele>420.8</ele>
        <time>2021-11-28T10:35:05Z</time>
      </trkpt>
      <trkpt lat="43.53048" lon="2.39034">
        <ele>420.1</ele>
        <time>2021-11-28T10:35:06Z</time>
      </trkpt>
      <trkpt lat="43.53038" lon="2.39027">
        <ele>419.6</ele>
        <time>2021-11-28T10:35:07Z</time>
      </trkpt>
      <trkpt lat="43.53029" lon="2.39021">
        <ele>419.2</ele>
        <time>2021-11-28T10:35:08Z</time>
      </trkpt>
      <trkpt lat="43.53013" lon="2.39009">
        <ele>418.6</ele>
        <time>2021-11-28T10:35:10Z</time>
      </trkpt>
      <trkpt lat="43.53005" lon="2.39004">
        <ele>418.3</ele>
        <time>2021-11-28T10:35:11Z</time>
      </trkpt>
      <trkpt lat="43.52991" lon="2.38993">
        <ele>417.8</ele>
        <time>2021-11-28T10:35:13Z</time>
      </trkpt>
      <trkpt lat="43.52977" lon="2.38983">
        <ele>417.3</ele>
        <time>2021-11-28T10:35:15Z</time>
      </trkpt>
      <trkpt lat="43.52969" lon="2.38979">
        <ele>417</ele>
        <time>2021-11-28T10:35:16Z</time>
      </trkpt>
      <trkpt lat="43.52955" lon="2.3897">
        <ele>416.1</ele>
        <time>2021-11-28T10:35:18Z</time>
      </trkpt>
      <trkpt lat="43.5294" lon="2.38958">
        <ele>414.5</ele>
        <time>2021-11-28T10:35:20Z</time>
      </trkpt>
      <trkpt lat="43.52925" lon="2.38944">
        <ele>412.6</ele>
        <time>2021-11-28T10:35:22Z</time>
      </trkpt>
      <trkpt lat="43.52917" lon="2.38937">
        <ele>411.5</ele>
        <time>2021-11-28T10:35:23Z</time>
      </trkpt>
      <trkpt lat="43.5291" lon="2.3893">
        <ele>410.5</ele>
        <time>2021-11-28T10:35:24Z</time>
      </trkpt>
      <trkpt lat="43.52896" lon="2.38917">
        <ele>408.5</ele>
        <time>2021-11-28T10:35:26Z</time>
      </trkpt>
      <trkpt lat="43.52882" lon="2.38903">
        <ele>406.2</ele>
        <time>2021-11-28T10:35:28Z</time>
      </trkpt>
      <trkpt lat="43.52876" lon="2.38897">
        <ele>404.9</ele>
        <time>2021-11-28T10:35:29Z</time>
      </trkpt>
      <trkpt lat="43.52863" lon="2.38883">
        <ele>402.2</ele>
        <time>2021-11-28T10:35:31Z</time>
      </trkpt>
      <trkpt lat="43.52851" lon="2.3887">
        <ele>399.3</ele>
        <time>2021-11-28T10:35:33Z</time>
      </trkpt>
      <trkpt lat="43.52844" lon="2.38863">
        <ele>397.8</ele>
        <time>2021-11-28T10:35:34Z</time>
      </trkpt>
      <trkpt lat="43.52831" lon="2.38851">
        <ele>395.3</ele>
        <time>2021-11-28T10:35:36Z</time>
      </trkpt>
      <trkpt lat="43.52825" lon="2.38844">
        <ele>394.2</ele>
        <time>2021-11-28T10:35:37Z</time>
      </trkpt>
      <trkpt lat="43.52817" lon="2.38834">
        <ele>392.3</ele>
        <time>2021-11-28T10:35:39Z</time>
      </trkpt>
      <trkpt lat="43.52812" lon="2.38829">
        <ele>391.4</ele>
        <time>2021-11-28T10:35:40Z</time>
      </trkpt>
      <trkpt lat="43.52803" lon="2.38816">
        <ele>389.3</ele>
        <time>2021-11-28T10:35:42Z</time>
      </trkpt>
      <trkpt lat="43.52797" lon="2.38804">
        <ele>387.5</ele>
        <time>2021-11-28T10:35:44Z</time>
      </trkpt>
      <trkpt lat="43.52788" lon="2.38791">
        <ele>385.4</ele>
        <time>2021-11-28T10:35:46Z</time>
      </trkpt>
      <trkpt lat="43.52779" lon="2.38778">
        <ele>383.3</ele>
        <time>2021-11-28T10:35:48Z</time>
      </trkpt>
      <trkpt lat="43.52773" lon="2.38773">
        <ele>382.3</ele>
        <time>2021-11-28T10:35:49Z</time>
      </trkpt>
      <trkpt lat="43.52766" lon="2.38766">
        <ele>381.1</ele>
        <time>2021-11-28T10:35:51Z</time>
      </trkpt>
      <trkpt lat="43.52755" lon="2.3876">
        <ele>379.4</ele>
        <time>2021-11-28T10:35:53Z</time>
      </trkpt>
      <trkpt lat="43.52743" lon="2.38754">
        <ele>377.7</ele>
        <time>2021-11-28T10:35:55Z</time>
      </trkpt>
      <trkpt lat="43.52736" lon="2.38751">
        <ele>376.8</ele>
        <time>2021-11-28T10:35:56Z</time>
      </trkpt>
      <trkpt lat="43.52724" lon="2.38746">
        <ele>375.3</ele>
        <time>2021-11-28T10:35:58Z</time>
      </trkpt>
      <trkpt lat="43.52706" lon="2.38737">
        <ele>373.1</ele>
        <time>2021-11-28T10:36:00Z</time>
      </trkpt>
      <trkpt lat="43.52698" lon="2.38733">
        <ele>372.1</ele>
        <time>2021-11-28T10:36:01Z</time>
      </trkpt>
      <trkpt lat="43.5269" lon="2.38728">
        <ele>371.2</ele>
        <time>2021-11-28T10:36:02Z</time>
      </trkpt>
      <trkpt lat="43.52675" lon="2.38716">
        <ele>369.2</ele>
        <time>2021-11-28T10:36:04Z</time>
      </trkpt>
      <trkpt lat="43.52662" lon="2.38707">
        <ele>367.7</ele>
        <time>2021-11-28T10:36:06Z</time>
      </trkpt>
      <trkpt lat="43.52655" lon="2.38702">
        <ele>366.8</ele>
        <time>2021-11-28T10:36:07Z</time>
      </trkpt>
      <trkpt lat="43.52639" lon="2.38695">
        <ele>364.8</ele>
        <time>2021-11-28T10:36:09Z</time>
      </trkpt>
      <trkpt lat="43.52624" lon="2.38689">
        <ele>362.9</ele>
        <time>2021-11-28T10:36:11Z</time>
      </trkpt>
      <trkpt lat="43.52616" lon="2.38686">
        <ele>362</ele>
        <time>2021-11-28T10:36:12Z</time>
      </trkpt>
      <trkpt lat="43.52602" lon="2.3868">
        <ele>360.3</ele>
        <time>2021-11-28T10:36:14Z</time>
      </trkpt>
      <trkpt lat="43.52588" lon="2.38673">
        <ele>358.5</ele>
        <time>2021-11-28T10:36:16Z</time>
      </trkpt>
      <trkpt lat="43.52581" lon="2.38668">
        <ele>357.7</ele>
        <time>2021-11-28T10:36:17Z</time>
      </trkpt>
      <trkpt lat="43.52575" lon="2.38662">
        <ele>356.8</ele>
        <time>2021-11-28T10:36:18Z</time>
      </trkpt>
      <trkpt lat="43.52561" lon="2.38657">
        <ele>355.3</ele>
        <time>2021-11-28T10:36:20Z</time>
      </trkpt>
      <trkpt lat="43.52547" lon="2.38651">
        <ele>353.8</ele>
        <time>2021-11-28T10:36:22Z</time>
      </trkpt>
      <trkpt lat="43.52536" lon="2.38647">
        <ele>352.7</ele>
        <time>2021-11-28T10:36:23Z</time>
      </trkpt>
      <trkpt lat="43.52525" lon="2.38642">
        <ele>351.8</ele>
        <time>2021-11-28T10:36:24Z</time>
      </trkpt>
      <trkpt lat="43.52514" lon="2.38637">
        <ele>351</ele>
        <time>2021-11-28T10:36:25Z</time>
      </trkpt>
      <trkpt lat="43.52497" lon="2.38631">
        <ele>349.9</ele>
        <time>2021-11-28T10:36:27Z</time>
      </trkpt>
      <trkpt lat="43.5249" lon="2.38629">
        <ele>349.6</ele>
        <time>2021-11-28T10:36:28Z</time>
      </trkpt>
      <trkpt lat="43.52477" lon="2.38625">
        <ele>349.2</ele>
        <time>2021-11-28T10:36:30Z</time>
      </trkpt>
      <trkpt lat="43.52468" lon="2.38624">
        <ele>349</ele>
        <time>2021-11-28T10:36:31Z</time>
      </trkpt>
      <trkpt lat="43.52456" lon="2.38622">
        <ele>348.7</ele>
        <time>2021-11-28T10:36:33Z</time>
      </trkpt>
      <trkpt lat="43.52446" lon="2.38622">
        <ele>348.4</ele>
        <time>2021-11-28T10:36:35Z</time>
      </trkpt>
      <trkpt lat="43.52441" lon="2.38622">
        <ele>348.3</ele>
        <time>2021-11-28T10:36:36Z</time>
      </trkpt>
      <trkpt lat="43.52437" lon="2.38622">
        <ele>348.2</ele>
        <time>2021-11-28T10:36:37Z</time>
      </trkpt>
      <trkpt lat="43.52425" lon="2.38625">
        <ele>347.8</ele>
        <time>2021-11-28T10:36:39Z</time>
      </trkpt>
      <trkpt lat="43.52422" lon="2.38625">
        <ele>347.6</ele>
        <time>2021-11-28T10:36:40Z</time>
      </trkpt>
      <trkpt lat="43.52403" lon="2.38627">
        <ele>346.8</ele>
        <time>2021-11-28T10:36:42Z</time>
      </trkpt>
      <trkpt lat="43.52394" lon="2.38629">
        <ele>346.4</ele>
        <time>2021-11-28T10:36:43Z</time>
      </trkpt>
      <trkpt lat="43.52376" lon="2.38631">
        <ele>345.6</ele>
        <time>2021-11-28T10:36:45Z</time>
      </trkpt>
      <trkpt lat="43.52367" lon="2.38632">
        <ele>345.4</ele>
        <time>2021-11-28T10:36:46Z</time>
      </trkpt>
      <trkpt lat="43.5236" lon="2.38634">
        <ele>345.2</ele>
        <time>2021-11-28T10:36:47Z</time>
      </trkpt>
      <trkpt lat="43.52348" lon="2.38635">
        <ele>345.1</ele>
        <time>2021-11-28T10:36:49Z</time>
      </trkpt>
      <trkpt lat="43.52343" lon="2.38637">
        <ele>345</ele>
        <time>2021-11-28T10:36:51Z</time>
      </trkpt>
      <trkpt lat="43.52337" lon="2.38639">
        <ele>344.9</ele>
        <time>2021-11-28T10:36:52Z</time>
      </trkpt>
      <trkpt lat="43.52333" lon="2.38639">
        <ele>344.9</ele>
        <time>2021-11-28T10:36:53Z</time>
      </trkpt>
      <trkpt lat="43.52329" lon="2.3864">
        <ele>344.8</ele>
        <time>2021-11-28T10:36:54Z</time>
      </trkpt>
      <trkpt lat="43.52322" lon="2.38642">
        <ele>344.7</ele>
        <time>2021-11-28T10:36:56Z</time>
      </trkpt>
      <trkpt lat="43.52317" lon="2.38644">
        <ele>344.7</ele>
        <time>2021-11-28T10:36:57Z</time>
      </trkpt>
      <trkpt lat="43.52311" lon="2.38647">
        <ele>344.7</ele>
        <time>2021-11-28T10:36:58Z</time>
      </trkpt>
      <trkpt lat="43.52304" lon="2.3865">
        <ele>344.6</ele>
        <time>2021-11-28T10:37:00Z</time>
      </trkpt>
      <trkpt lat="43.52303" lon="2.3865">
        <ele>344.6</ele>
        <time>2021-11-28T10:37:01Z</time>
      </trkpt>
      <trkpt lat="43.52301" lon="2.38651">
        <ele>344.6</ele>
        <time>2021-11-28T10:37:03Z</time>
      </trkpt>
      <trkpt lat="43.52298" lon="2.38652">
        <ele>344.6</ele>
        <time>2021-11-28T10:37:05Z</time>
      </trkpt>
      <trkpt lat="43.52297" lon="2.38652">
        <ele>344.6</ele>
        <time>2021-11-28T10:37:07Z</time>
      </trkpt>
      <trkpt lat="43.52293" lon="2.38655">
        <ele>344.6</ele>
        <time>2021-11-28T10:37:09Z</time>
      </trkpt>
      <trkpt lat="43.52285" lon="2.38663">
        <ele>344.6</ele>
        <time>2021-11-28T10:37:11Z</time>
      </trkpt>
      <trkpt lat="43.52279" lon="2.3867">
        <ele>344.6</ele>
        <time>2021-11-28T10:37:13Z</time>
      </trkpt>
      <trkpt lat="43.52276" lon="2.38674">
        <ele>344.6</ele>
        <time>2021-11-28T10:37:14Z</time>
      </trkpt>
      <trkpt lat="43.52269" lon="2.38681">
        <ele>344.6</ele>
        <time>2021-11-28T10:37:16Z</time>
      </trkpt>
      <trkpt lat="43.52266" lon="2.38684">
        <ele>344.7</ele>
        <time>2021-11-28T10:37:17Z</time>
      </trkpt>
      <trkpt lat="43.52262" lon="2.38687">
        <ele>344.7</ele>
        <time>2021-11-28T10:37:18Z</time>
      </trkpt>
      <trkpt lat="43.52256" lon="2.38693">
        <ele>344.8</ele>
        <time>2021-11-28T10:37:20Z</time>
      </trkpt>
      <trkpt lat="43.52252" lon="2.38696">
        <ele>344.8</ele>
        <time>2021-11-28T10:37:21Z</time>
      </trkpt>
      <trkpt lat="43.52243" lon="2.38703">
        <ele>344.9</ele>
        <time>2021-11-28T10:37:23Z</time>
      </trkpt>
      <trkpt lat="43.52238" lon="2.38706">
        <ele>345</ele>
        <time>2021-11-28T10:37:25Z</time>
      </trkpt>
      <trkpt lat="43.52235" lon="2.38709">
        <ele>345.1</ele>
        <time>2021-11-28T10:37:26Z</time>
      </trkpt>
      <trkpt lat="43.52231" lon="2.38711">
        <ele>345.1</ele>
        <time>2021-11-28T10:37:28Z</time>
      </trkpt>
      <trkpt lat="43.52227" lon="2.38713">
        <ele>345.2</ele>
        <time>2021-11-28T10:37:29Z</time>
      </trkpt>
      <trkpt lat="43.52223" lon="2.38715">
        <ele>345.3</ele>
        <time>2021-11-28T10:37:30Z</time>
      </trkpt>
      <trkpt lat="43.52215" lon="2.3872">
        <ele>345.4</ele>
        <time>2021-11-28T10:37:31Z</time>
      </trkpt>
      <trkpt lat="43.52211" lon="2.38723">
        <ele>345.4</ele>
        <time>2021-11-28T10:37:33Z</time>
      </trkpt>
      <trkpt lat="43.52207" lon="2.38726">
        <ele>345.4</ele>
        <time>2021-11-28T10:37:34Z</time>
      </trkpt>
      <trkpt lat="43.52204" lon="2.38728">
        <ele>345.3</ele>
        <time>2021-11-28T10:37:35Z</time>
      </trkpt>
      <trkpt lat="43.52198" lon="2.38733">
        <ele>345.2</ele>
        <time>2021-11-28T10:37:37Z</time>
      </trkpt>
      <trkpt lat="43.52187" lon="2.38741">
        <ele>344.9</ele>
        <time>2021-11-28T10:37:39Z</time>
      </trkpt>
      <trkpt lat="43.5218" lon="2.38745">
        <ele>344.6</ele>
        <time>2021-11-28T10:37:40Z</time>
      </trkpt>
      <trkpt lat="43.52171" lon="2.38752">
        <ele>344.2</ele>
        <time>2021-11-28T10:37:42Z</time>
      </trkpt>
      <trkpt lat="43.52161" lon="2.38758">
        <ele>343.7</ele>
        <time>2021-11-28T10:37:44Z</time>
      </trkpt>
      <trkpt lat="43.52152" lon="2.38763">
        <ele>343.3</ele>
        <time>2021-11-28T10:37:45Z</time>
      </trkpt>
      <trkpt lat="43.52145" lon="2.38766">
        <ele>343</ele>
        <time>2021-11-28T10:37:47Z</time>
      </trkpt>
      <trkpt lat="43.5214" lon="2.38768">
        <ele>342.8</ele>
        <time>2021-11-28T10:37:48Z</time>
      </trkpt>
      <trkpt lat="43.52137" lon="2.3877">
        <ele>342.7</ele>
        <time>2021-11-28T10:37:49Z</time>
      </trkpt>
      <trkpt lat="43.52133" lon="2.38773">
        <ele>342.5</ele>
        <time>2021-11-28T10:37:50Z</time>
      </trkpt>
      <trkpt lat="43.52128" lon="2.38776">
        <ele>342.3</ele>
        <time>2021-11-28T10:37:51Z</time>
      </trkpt>
      <trkpt lat="43.52122" lon="2.38779">
        <ele>342.1</ele>
        <time>2021-11-28T10:37:53Z</time>
      </trkpt>
      <trkpt lat="43.52117" lon="2.38782">
        <ele>341.8</ele>
        <time>2021-11-28T10:37:54Z</time>
      </trkpt>
      <trkpt lat="43.52112" lon="2.38784">
        <ele>341.5</ele>
        <time>2021-11-28T10:37:56Z</time>
      </trkpt>
      <trkpt lat="43.52108" lon="2.38787">
        <ele>341.3</ele>
        <time>2021-11-28T10:37:57Z</time>
      </trkpt>
      <trkpt lat="43.52101" lon="2.38792">
        <ele>341</ele>
        <time>2021-11-28T10:37:58Z</time>
      </trkpt>
      <trkpt lat="43.52094" lon="2.38798">
        <ele>340.6</ele>
        <time>2021-11-28T10:38:00Z</time>
      </trkpt>
      <trkpt lat="43.52087" lon="2.38802">
        <ele>340.3</ele>
        <time>2021-11-28T10:38:01Z</time>
      </trkpt>
      <trkpt lat="43.52076" lon="2.38807">
        <ele>339.8</ele>
        <time>2021-11-28T10:38:03Z</time>
      </trkpt>
      <trkpt lat="43.52068" lon="2.38813">
        <ele>339.4</ele>
        <time>2021-11-28T10:38:04Z</time>
      </trkpt>
      <trkpt lat="43.52058" lon="2.38818">
        <ele>338.9</ele>
        <time>2021-11-28T10:38:06Z</time>
      </trkpt>
      <trkpt lat="43.52052" lon="2.3882">
        <ele>338.7</ele>
        <time>2021-11-28T10:38:07Z</time>
      </trkpt>
      <trkpt lat="43.52038" lon="2.38828">
        <ele>338.2</ele>
        <time>2021-11-28T10:38:09Z</time>
      </trkpt>
      <trkpt lat="43.52007" lon="2.38851">
        <ele>337.7</ele>
        <time>2021-11-28T10:38:10Z</time>
      </trkpt>
      <trkpt lat="43.52002" lon="2.38853">
        <ele>337.7</ele>
        <time>2021-11-28T10:38:11Z</time>
      </trkpt>
      <trkpt lat="43.51986" lon="2.38864">
        <ele>337.5</ele>
        <time>2021-11-28T10:38:13Z</time>
      </trkpt>
      <trkpt lat="43.51972" lon="2.38872">
        <ele>337.1</ele>
        <time>2021-11-28T10:38:15Z</time>
      </trkpt>
      <trkpt lat="43.51967" lon="2.38873">
        <ele>336.9</ele>
        <time>2021-11-28T10:38:16Z</time>
      </trkpt>
      <trkpt lat="43.51963" lon="2.38874">
        <ele>336.8</ele>
        <time>2021-11-28T10:38:17Z</time>
      </trkpt>
      <trkpt lat="43.51957" lon="2.38875">
        <ele>336.6</ele>
        <time>2021-11-28T10:38:18Z</time>
      </trkpt>
      <trkpt lat="43.51948" lon="2.38879">
        <ele>336.3</ele>
        <time>2021-11-28T10:38:20Z</time>
      </trkpt>
      <trkpt lat="43.51941" lon="2.38876">
        <ele>336</ele>
        <time>2021-11-28T10:38:22Z</time>
      </trkpt>
      <trkpt lat="43.51935" lon="2.38878">
        <ele>335.8</ele>
        <time>2021-11-28T10:38:23Z</time>
      </trkpt>
      <trkpt lat="43.51926" lon="2.38883">
        <ele>335.5</ele>
        <time>2021-11-28T10:38:24Z</time>
      </trkpt>
      <trkpt lat="43.51918" lon="2.38888">
        <ele>335.2</ele>
        <time>2021-11-28T10:38:26Z</time>
      </trkpt>
      <trkpt lat="43.51914" lon="2.38891">
        <ele>335.1</ele>
        <time>2021-11-28T10:38:27Z</time>
      </trkpt>
      <trkpt lat="43.51908" lon="2.38893">
        <ele>334.9</ele>
        <time>2021-11-28T10:38:28Z</time>
      </trkpt>
      <trkpt lat="43.51899" lon="2.38897">
        <ele>334.5</ele>
        <time>2021-11-28T10:38:30Z</time>
      </trkpt>
      <trkpt lat="43.51895" lon="2.38899">
        <ele>334.3</ele>
        <time>2021-11-28T10:38:31Z</time>
      </trkpt>
      <trkpt lat="43.51889" lon="2.38903">
        <ele>334</ele>
        <time>2021-11-28T10:38:32Z</time>
      </trkpt>
      <trkpt lat="43.51882" lon="2.38908">
        <ele>333.7</ele>
        <time>2021-11-28T10:38:34Z</time>
      </trkpt>
      <trkpt lat="43.51878" lon="2.38911">
        <ele>333.4</ele>
        <time>2021-11-28T10:38:35Z</time>
      </trkpt>
      <trkpt lat="43.51871" lon="2.38917">
        <ele>333.1</ele>
        <time>2021-11-28T10:38:37Z</time>
      </trkpt>
      <trkpt lat="43.51868" lon="2.38918">
        <ele>332.9</ele>
        <time>2021-11-28T10:38:38Z</time>
      </trkpt>
      <trkpt lat="43.51859" lon="2.38924">
        <ele>332.5</ele>
        <time>2021-11-28T10:38:40Z</time>
      </trkpt>
      <trkpt lat="43.51856" lon="2.38927">
        <ele>332.3</ele>
        <time>2021-11-28T10:38:41Z</time>
      </trkpt>
      <trkpt lat="43.51846" lon="2.38939">
        <ele>331.6</ele>
        <time>2021-11-28T10:38:42Z</time>
      </trkpt>
      <trkpt lat="43.5184" lon="2.38943">
        <ele>331.3</ele>
        <time>2021-11-28T10:38:44Z</time>
      </trkpt>
      <trkpt lat="43.51835" lon="2.38948">
        <ele>330.9</ele>
        <time>2021-11-28T10:38:46Z</time>
      </trkpt>
      <trkpt lat="43.51834" lon="2.3895">
        <ele>330.8</ele>
        <time>2021-11-28T10:38:47Z</time>
      </trkpt>
      <trkpt lat="43.51833" lon="2.38951">
        <ele>330.8</ele>
        <time>2021-11-28T10:38:49Z</time>
      </trkpt>
      <trkpt lat="43.51832" lon="2.38952">
        <ele>330.7</ele>
        <time>2021-11-28T10:38:50Z</time>
      </trkpt>
      <trkpt lat="43.51829" lon="2.38954">
        <ele>330.5</ele>
        <time>2021-11-28T10:38:52Z</time>
      </trkpt>
      <trkpt lat="43.51828" lon="2.38958">
        <ele>330.4</ele>
        <time>2021-11-28T10:38:54Z</time>
      </trkpt>
      <trkpt lat="43.51828" lon="2.3896">
        <ele>330.3</ele>
        <time>2021-11-28T10:38:55Z</time>
      </trkpt>
      <trkpt lat="43.51827" lon="2.38962">
        <ele>330.2</ele>
        <time>2021-11-28T10:38:56Z</time>
      </trkpt>
      <trkpt lat="43.51827" lon="2.38965">
        <ele>330.1</ele>
        <time>2021-11-28T10:38:58Z</time>
      </trkpt>
      <trkpt lat="43.51827" lon="2.38966">
        <ele>330</ele>
        <time>2021-11-28T10:39:02Z</time>
      </trkpt>
      <trkpt lat="43.51826" lon="2.38976">
        <ele>329.5</ele>
        <time>2021-11-28T10:39:39Z</time>
      </trkpt>
      <trkpt lat="43.51825" lon="2.38978">
        <ele>329.4</ele>
        <time>2021-11-28T10:39:40Z</time>
      </trkpt>
      <trkpt lat="43.51823" lon="2.3898">
        <ele>329.3</ele>
        <time>2021-11-28T10:39:42Z</time>
      </trkpt>
      <trkpt lat="43.51821" lon="2.3898">
        <ele>329.1</ele>
        <time>2021-11-28T10:39:44Z</time>
      </trkpt>
      <trkpt lat="43.51822" lon="2.3898">
        <ele>329.1</ele>
        <time>2021-11-28T10:39:45Z</time>
      </trkpt>
      <trkpt lat="43.5182" lon="2.38981">
        <ele>329</ele>
        <time>2021-11-28T10:39:47Z</time>
      </trkpt>
      <trkpt lat="43.51818" lon="2.38979">
        <ele>328.9</ele>
        <time>2021-11-28T10:39:52Z</time>
      </trkpt>
      <trkpt lat="43.51817" lon="2.38978">
        <ele>328.8</ele>
        <time>2021-11-28T10:39:53Z</time>
      </trkpt>
      <trkpt lat="43.51815" lon="2.38978">
        <ele>328.4</ele>
        <time>2021-11-28T10:39:54Z</time>
      </trkpt>
      <trkpt lat="43.51813" lon="2.38977">
        <ele>328.3</ele>
        <time>2021-11-28T10:39:55Z</time>
      </trkpt>
      <trkpt lat="43.5181" lon="2.38973">
        <ele>328</ele>
        <time>2021-11-28T10:39:57Z</time>
      </trkpt>
      <trkpt lat="43.51808" lon="2.38968">
        <ele>327.6</ele>
        <time>2021-11-28T10:39:58Z</time>
      </trkpt>
      <trkpt lat="43.51806" lon="2.38964">
        <ele>327.2</ele>
        <time>2021-11-28T10:39:59Z</time>
      </trkpt>
      <trkpt lat="43.51805" lon="2.38962">
        <ele>327.1</ele>
        <time>2021-11-28T10:40:00Z</time>
      </trkpt>
      <trkpt lat="43.51802" lon="2.38957">
        <ele>326.7</ele>
        <time>2021-11-28T10:40:02Z</time>
      </trkpt>
      <trkpt lat="43.51801" lon="2.38955">
        <ele>326.7</ele>
        <time>2021-11-28T10:40:03Z</time>
      </trkpt>
      <trkpt lat="43.518" lon="2.38952">
        <ele>326.6</ele>
        <time>2021-11-28T10:40:05Z</time>
      </trkpt>
      <trkpt lat="43.518" lon="2.3895">
        <ele>326.5</ele>
        <time>2021-11-28T10:40:06Z</time>
      </trkpt>
      <trkpt lat="43.51799" lon="2.38948">
        <ele>326</ele>
        <time>2021-11-28T10:40:07Z</time>
      </trkpt>
      <trkpt lat="43.51798" lon="2.38944">
        <ele>325.9</ele>
        <time>2021-11-28T10:40:09Z</time>
      </trkpt>
      <trkpt lat="43.51796" lon="2.38941">
        <ele>325.4</ele>
        <time>2021-11-28T10:40:10Z</time>
      </trkpt>
      <trkpt lat="43.51793" lon="2.38936">
        <ele>324.8</ele>
        <time>2021-11-28T10:40:11Z</time>
      </trkpt>
      <trkpt lat="43.51792" lon="2.38934">
        <ele>324.6</ele>
        <time>2021-11-28T10:40:12Z</time>
      </trkpt>
      <trkpt lat="43.51791" lon="2.38931">
        <ele>324.4</ele>
        <time>2021-11-28T10:40:14Z</time>
      </trkpt>
      <trkpt lat="43.51789" lon="2.38928">
        <ele>323.9</ele>
        <time>2021-11-28T10:40:15Z</time>
      </trkpt>
      <trkpt lat="43.51789" lon="2.38927">
        <ele>323.7</ele>
        <time>2021-11-28T10:40:16Z</time>
      </trkpt>
      <trkpt lat="43.51788" lon="2.38926">
        <ele>323.6</ele>
        <time>2021-11-28T10:40:18Z</time>
      </trkpt>
      <trkpt lat="43.51787" lon="2.38925">
        <ele>322.9</ele>
        <time>2021-11-28T10:40:19Z</time>
      </trkpt>
      <trkpt lat="43.51786" lon="2.38924">
        <ele>322.8</ele>
        <time>2021-11-28T10:40:20Z</time>
      </trkpt>
      <trkpt lat="43.51783" lon="2.38922">
        <ele>322</ele>
        <time>2021-11-28T10:40:22Z</time>
      </trkpt>
      <trkpt lat="43.51766" lon="2.38897">
        <ele>318.3</ele>
        <time>2021-11-28T10:40:42Z</time>
      </trkpt>
      <trkpt lat="43.51763" lon="2.38892">
        <ele>317.5</ele>
        <time>2021-11-28T10:40:44Z</time>
      </trkpt>
      <trkpt lat="43.51762" lon="2.38888">
        <ele>316.8</ele>
        <time>2021-11-28T10:40:45Z</time>
      </trkpt>
      <trkpt lat="43.51759" lon="2.38883">
        <ele>316.6</ele>
        <time>2021-11-28T10:40:47Z</time>
      </trkpt>
      <trkpt lat="43.51756" lon="2.38881">
        <ele>316</ele>
        <time>2021-11-28T10:40:48Z</time>
      </trkpt>
      <trkpt lat="43.51754" lon="2.38878">
        <ele>315.4</ele>
        <time>2021-11-28T10:40:49Z</time>
      </trkpt>
      <trkpt lat="43.51751" lon="2.38877">
        <ele>314.8</ele>
        <time>2021-11-28T10:40:50Z</time>
      </trkpt>
      <trkpt lat="43.51745" lon="2.38878">
        <ele>313.8</ele>
        <time>2021-11-28T10:40:51Z</time>
      </trkpt>
      <trkpt lat="43.51738" lon="2.38878">
        <ele>312.8</ele>
        <time>2021-11-28T10:40:52Z</time>
      </trkpt>
      <trkpt lat="43.5173" lon="2.38879">
        <ele>311.3</ele>
        <time>2021-11-28T10:40:53Z</time>
      </trkpt>
      <trkpt lat="43.51721" lon="2.38879">
        <ele>309.4</ele>
        <time>2021-11-28T10:40:54Z</time>
      </trkpt>
      <trkpt lat="43.51715" lon="2.38879">
        <ele>307.9</ele>
        <time>2021-11-28T10:40:56Z</time>
      </trkpt>
      <trkpt lat="43.51709" lon="2.38879">
        <ele>306.5</ele>
        <time>2021-11-28T10:40:57Z</time>
      </trkpt>
      <trkpt lat="43.51703" lon="2.38879">
        <ele>305.2</ele>
        <time>2021-11-28T10:40:59Z</time>
      </trkpt>
      <trkpt lat="43.51699" lon="2.38879">
        <ele>304.4</ele>
        <time>2021-11-28T10:41:00Z</time>
      </trkpt>
      <trkpt lat="43.51697" lon="2.38879">
        <ele>303.5</ele>
        <time>2021-11-28T10:41:01Z</time>
      </trkpt>
      <trkpt lat="43.51694" lon="2.3888">
        <ele>302.7</ele>
        <time>2021-11-28T10:41:02Z</time>
      </trkpt>
      <trkpt lat="43.5169" lon="2.3888">
        <ele>301.6</ele>
        <time>2021-11-28T10:41:04Z</time>
      </trkpt>
      <trkpt lat="43.51687" lon="2.38876">
        <ele>300.8</ele>
        <time>2021-11-28T10:41:06Z</time>
      </trkpt>
      <trkpt lat="43.51681" lon="2.3888">
        <ele>299.3</ele>
        <time>2021-11-28T10:41:08Z</time>
      </trkpt>
      <trkpt lat="43.51678" lon="2.3888">
        <ele>299.3</ele>
        <time>2021-11-28T10:41:10Z</time>
      </trkpt>
      <trkpt lat="43.51677" lon="2.38879">
        <ele>298.4</ele>
        <time>2021-11-28T10:41:12Z</time>
      </trkpt>
      <trkpt lat="43.51676" lon="2.38878">
        <ele>298.3</ele>
        <time>2021-11-28T10:41:13Z</time>
      </trkpt>
      <trkpt lat="43.51675" lon="2.38876">
        <ele>298.2</ele>
        <time>2021-11-28T10:41:15Z</time>
      </trkpt>
      <trkpt lat="43.51674" lon="2.38874">
        <ele>297.2</ele>
        <time>2021-11-28T10:41:16Z</time>
      </trkpt>
      <trkpt lat="43.51674" lon="2.38872">
        <ele>297.1</ele>
        <time>2021-11-28T10:41:17Z</time>
      </trkpt>
      <trkpt lat="43.51673" lon="2.3887">
        <ele>296.9</ele>
        <time>2021-11-28T10:41:18Z</time>
      </trkpt>
      <trkpt lat="43.51672" lon="2.38868">
        <ele>296</ele>
        <time>2021-11-28T10:41:19Z</time>
      </trkpt>
      <trkpt lat="43.51671" lon="2.38866">
        <ele>295.9</ele>
        <time>2021-11-28T10:41:21Z</time>
      </trkpt>
      <trkpt lat="43.51671" lon="2.38864">
        <ele>295.8</ele>
        <time>2021-11-28T10:41:23Z</time>
      </trkpt>
      <trkpt lat="43.51672" lon="2.38864">
        <ele>296.2</ele>
        <time>2021-11-28T10:41:26Z</time>
      </trkpt>
      <trkpt lat="43.51672" lon="2.38863">
        <ele>295.3</ele>
        <time>2021-11-28T10:41:28Z</time>
      </trkpt>
      <trkpt lat="43.51671" lon="2.38861">
        <ele>295.2</ele>
        <time>2021-11-28T10:41:29Z</time>
      </trkpt>
      <trkpt lat="43.51662" lon="2.38839">
        <ele>292</ele>
        <time>2021-11-28T10:41:35Z</time>
      </trkpt>
      <trkpt lat="43.51649" lon="2.38815">
        <ele>289</ele>
        <time>2021-11-28T10:41:36Z</time>
      </trkpt>
      <trkpt lat="43.51646" lon="2.3881">
        <ele>288</ele>
        <time>2021-11-28T10:41:37Z</time>
      </trkpt>
      <trkpt lat="43.51645" lon="2.38806">
        <ele>287.8</ele>
        <time>2021-11-28T10:41:39Z</time>
      </trkpt>
      <trkpt lat="43.51643" lon="2.38802">
        <ele>286.8</ele>
        <time>2021-11-28T10:41:40Z</time>
      </trkpt>
      <trkpt lat="43.51641" lon="2.38798">
        <ele>285.7</ele>
        <time>2021-11-28T10:41:41Z</time>
      </trkpt>
      <trkpt lat="43.51638" lon="2.38793">
        <ele>285.4</ele>
        <time>2021-11-28T10:41:43Z</time>
      </trkpt>
      <trkpt lat="43.51636" lon="2.38789">
        <ele>284.4</ele>
        <time>2021-11-28T10:41:44Z</time>
      </trkpt>
      <trkpt lat="43.51632" lon="2.3878">
        <ele>283.2</ele>
        <time>2021-11-28T10:41:45Z</time>
      </trkpt>
      <trkpt lat="43.51628" lon="2.38776">
        <ele>281.5</ele>
        <time>2021-11-28T10:41:47Z</time>
      </trkpt>
      <trkpt lat="43.51625" lon="2.38772">
        <ele>281.3</ele>
        <time>2021-11-28T10:41:48Z</time>
      </trkpt>
      <trkpt lat="43.51623" lon="2.38769">
        <ele>280.5</ele>
        <time>2021-11-28T10:41:49Z</time>
      </trkpt>
      <trkpt lat="43.51618" lon="2.38765">
        <ele>278.8</ele>
        <time>2021-11-28T10:41:51Z</time>
      </trkpt>
      <trkpt lat="43.51613" lon="2.3876">
        <ele>277.8</ele>
        <time>2021-11-28T10:41:52Z</time>
      </trkpt>
      <trkpt lat="43.5161" lon="2.38757">
        <ele>275.9</ele>
        <time>2021-11-28T10:41:53Z</time>
      </trkpt>
      <trkpt lat="43.51605" lon="2.38753">
        <ele>274.8</ele>
        <time>2021-11-28T10:41:54Z</time>
      </trkpt>
      <trkpt lat="43.51599" lon="2.38748">
        <ele>272.9</ele>
        <time>2021-11-28T10:41:56Z</time>
      </trkpt>
      <trkpt lat="43.51597" lon="2.38746">
        <ele>271.9</ele>
        <time>2021-11-28T10:41:57Z</time>
      </trkpt>
      <trkpt lat="43.51596" lon="2.38746">
        <ele>271.8</ele>
        <time>2021-11-28T10:41:58Z</time>
      </trkpt>
      <trkpt lat="43.51594" lon="2.38746">
        <ele>271.7</ele>
        <time>2021-11-28T10:41:59Z</time>
      </trkpt>
      <trkpt lat="43.51593" lon="2.38747">
        <ele>270.8</ele>
        <time>2021-11-28T10:42:01Z</time>
      </trkpt>
      <trkpt lat="43.51592" lon="2.38748">
        <ele>270.8</ele>
        <time>2021-11-28T10:42:02Z</time>
      </trkpt>
      <trkpt lat="43.51592" lon="2.38749">
        <ele>270.7</ele>
        <time>2021-11-28T10:42:03Z</time>
      </trkpt>
      <trkpt lat="43.51592" lon="2.3875">
        <ele>270.6</ele>
        <time>2021-11-28T10:42:04Z</time>
      </trkpt>
      <trkpt lat="43.51592" lon="2.38751">
        <ele>270.5</ele>
        <time>2021-11-28T10:42:06Z</time>
      </trkpt>
      <trkpt lat="43.51593" lon="2.38752">
        <ele>270.6</ele>
        <time>2021-11-28T10:42:07Z</time>
      </trkpt>
      <trkpt lat="43.51587" lon="2.38751">
        <ele>268.8</ele>
        <time>2021-11-28T10:42:09Z</time>
      </trkpt>
      <trkpt lat="43.51582" lon="2.3875">
        <ele>266.6</ele>
        <time>2021-11-28T10:42:11Z</time>
      </trkpt>
      <trkpt lat="43.51579" lon="2.38749">
        <ele>266.5</ele>
        <time>2021-11-28T10:42:12Z</time>
      </trkpt>
      <trkpt lat="43.51575" lon="2.38748">
        <ele>264.6</ele>
        <time>2021-11-28T10:42:14Z</time>
      </trkpt>
      <trkpt lat="43.51567" lon="2.38755">
        <ele>263.4</ele>
        <time>2021-11-28T10:42:21Z</time>
      </trkpt>
      <trkpt lat="43.51567" lon="2.38761">
        <ele>263.6</ele>
        <time>2021-11-28T10:42:22Z</time>
      </trkpt>
      <trkpt lat="43.51567" lon="2.38764">
        <ele>263.5</ele>
        <time>2021-11-28T10:42:23Z</time>
      </trkpt>
      <trkpt lat="43.51568" lon="2.38769">
        <ele>263.7</ele>
        <time>2021-11-28T10:42:25Z</time>
      </trkpt>
      <trkpt lat="43.51568" lon="2.38773">
        <ele>263.8</ele>
        <time>2021-11-28T10:42:26Z</time>
      </trkpt>
      <trkpt lat="43.51568" lon="2.38778">
        <ele>263.8</ele>
        <time>2021-11-28T10:42:27Z</time>
      </trkpt>
      <trkpt lat="43.51568" lon="2.38781">
        <ele>263.7</ele>
        <time>2021-11-28T10:42:28Z</time>
      </trkpt>
      <trkpt lat="43.51568" lon="2.38788">
        <ele>263.7</ele>
        <time>2021-11-28T10:42:30Z</time>
      </trkpt>
      <trkpt lat="43.51569" lon="2.38793">
        <ele>263.6</ele>
        <time>2021-11-28T10:42:31Z</time>
      </trkpt>
      <trkpt lat="43.5157" lon="2.38798">
        <ele>264.2</ele>
        <time>2021-11-28T10:42:33Z</time>
      </trkpt>
      <trkpt lat="43.5157" lon="2.38812">
        <ele>264</ele>
        <time>2021-11-28T10:42:35Z</time>
      </trkpt>
      <trkpt lat="43.51569" lon="2.38817">
        <ele>263.1</ele>
        <time>2021-11-28T10:42:36Z</time>
      </trkpt>
      <trkpt lat="43.5157" lon="2.38824">
        <ele>263.7</ele>
        <time>2021-11-28T10:42:37Z</time>
      </trkpt>
      <trkpt lat="43.51571" lon="2.3883">
        <ele>263.6</ele>
        <time>2021-11-28T10:42:39Z</time>
      </trkpt>
      <trkpt lat="43.51573" lon="2.38836">
        <ele>264.2</ele>
        <time>2021-11-28T10:42:40Z</time>
      </trkpt>
      <trkpt lat="43.51577" lon="2.38849">
        <ele>264.8</ele>
        <time>2021-11-28T10:42:42Z</time>
      </trkpt>
      <trkpt lat="43.51579" lon="2.38857">
        <ele>265.6</ele>
        <time>2021-11-28T10:42:43Z</time>
      </trkpt>
      <trkpt lat="43.5158" lon="2.38863">
        <ele>265.3</ele>
        <time>2021-11-28T10:42:44Z</time>
      </trkpt>
      <trkpt lat="43.51582" lon="2.38872">
        <ele>265</ele>
        <time>2021-11-28T10:42:46Z</time>
      </trkpt>
      <trkpt lat="43.51582" lon="2.38876">
        <ele>265.8</ele>
        <time>2021-11-28T10:42:47Z</time>
      </trkpt>
      <trkpt lat="43.51582" lon="2.38877">
        <ele>265.7</ele>
        <time>2021-11-28T10:42:48Z</time>
      </trkpt>
      <trkpt lat="43.51583" lon="2.38879">
        <ele>265.6</ele>
        <time>2021-11-28T10:42:50Z</time>
      </trkpt>
      <trkpt lat="43.51583" lon="2.38881">
        <ele>265.3</ele>
        <time>2021-11-28T10:42:52Z</time>
      </trkpt>
      <trkpt lat="43.51584" lon="2.38883">
        <ele>265.2</ele>
        <time>2021-11-28T10:42:53Z</time>
      </trkpt>
      <trkpt lat="43.51583" lon="2.38886">
        <ele>265</ele>
        <time>2021-11-28T10:42:54Z</time>
      </trkpt>
      <trkpt lat="43.51582" lon="2.38888">
        <ele>264.9</ele>
        <time>2021-11-28T10:42:55Z</time>
      </trkpt>
      <trkpt lat="43.51579" lon="2.38888">
        <ele>262.7</ele>
        <time>2021-11-28T10:42:57Z</time>
      </trkpt>
      <trkpt lat="43.51578" lon="2.38887">
        <ele>262.6</ele>
        <time>2021-11-28T10:42:58Z</time>
      </trkpt>
      <trkpt lat="43.51578" lon="2.38889">
        <ele>262.2</ele>
        <time>2021-11-28T10:43:00Z</time>
      </trkpt>
      <trkpt lat="43.51576" lon="2.38891">
        <ele>262.1</ele>
        <time>2021-11-28T10:43:02Z</time>
      </trkpt>
      <trkpt lat="43.51575" lon="2.38892">
        <ele>261</ele>
        <time>2021-11-28T10:43:03Z</time>
      </trkpt>
      <trkpt lat="43.51575" lon="2.38895">
        <ele>260.7</ele>
        <time>2021-11-28T10:43:04Z</time>
      </trkpt>
      <trkpt lat="43.51574" lon="2.389">
        <ele>260.4</ele>
        <time>2021-11-28T10:43:06Z</time>
      </trkpt>
      <trkpt lat="43.51572" lon="2.38899">
        <ele>259.4</ele>
        <time>2021-11-28T10:43:07Z</time>
      </trkpt>
      <trkpt lat="43.51571" lon="2.38899">
        <ele>259.3</ele>
        <time>2021-11-28T10:43:08Z</time>
      </trkpt>
      <trkpt lat="43.5157" lon="2.38899">
        <ele>259.2</ele>
        <time>2021-11-28T10:43:09Z</time>
      </trkpt>
      <trkpt lat="43.51568" lon="2.38899">
        <ele>258.2</ele>
        <time>2021-11-28T10:43:10Z</time>
      </trkpt>
      <trkpt lat="43.51565" lon="2.38901">
        <ele>257.2</ele>
        <time>2021-11-28T10:43:12Z</time>
      </trkpt>
      <trkpt lat="43.51558" lon="2.38905">
        <ele>254.9</ele>
        <time>2021-11-28T10:43:13Z</time>
      </trkpt>
      <trkpt lat="43.51552" lon="2.38907">
        <ele>252.4</ele>
        <time>2021-11-28T10:43:14Z</time>
      </trkpt>
      <trkpt lat="43.51548" lon="2.38903">
        <ele>251.4</ele>
        <time>2021-11-28T10:43:16Z</time>
      </trkpt>
      <trkpt lat="43.51546" lon="2.389">
        <ele>250.4</ele>
        <time>2021-11-28T10:43:17Z</time>
      </trkpt>
      <trkpt lat="43.51542" lon="2.38897">
        <ele>249.3</ele>
        <time>2021-11-28T10:43:19Z</time>
      </trkpt>
      <trkpt lat="43.5154" lon="2.38896">
        <ele>248.3</ele>
        <time>2021-11-28T10:43:20Z</time>
      </trkpt>
      <trkpt lat="43.51526" lon="2.38887">
        <ele>243.7</ele>
        <time>2021-11-28T10:43:21Z</time>
      </trkpt>
      <trkpt lat="43.51521" lon="2.38881">
        <ele>241.4</ele>
        <time>2021-11-28T10:43:23Z</time>
      </trkpt>
      <trkpt lat="43.5152" lon="2.38874">
        <ele>241.5</ele>
        <time>2021-11-28T10:43:25Z</time>
      </trkpt>
      <trkpt lat="43.51521" lon="2.38864">
        <ele>241.6</ele>
        <time>2021-11-28T10:43:26Z</time>
      </trkpt>
      <trkpt lat="43.51521" lon="2.38859">
        <ele>241.6</ele>
        <time>2021-11-28T10:43:27Z</time>
      </trkpt>
      <trkpt lat="43.51521" lon="2.38853">
        <ele>241.7</ele>
        <time>2021-11-28T10:43:29Z</time>
      </trkpt>
      <trkpt lat="43.51522" lon="2.3885">
        <ele>241.6</ele>
        <time>2021-11-28T10:43:30Z</time>
      </trkpt>
      <trkpt lat="43.51522" lon="2.38848">
        <ele>241.7</ele>
        <time>2021-11-28T10:43:31Z</time>
      </trkpt>
      <trkpt lat="43.51522" lon="2.38844">
        <ele>241.7</ele>
        <time>2021-11-28T10:43:33Z</time>
      </trkpt>
      <trkpt lat="43.51522" lon="2.38843">
        <ele>241.6</ele>
        <time>2021-11-28T10:43:34Z</time>
      </trkpt>
      <trkpt lat="43.51521" lon="2.38837">
        <ele>241.6</ele>
        <time>2021-11-28T10:43:35Z</time>
      </trkpt>
      <trkpt lat="43.51521" lon="2.38835">
        <ele>241.6</ele>
        <time>2021-11-28T10:43:36Z</time>
      </trkpt>
      <trkpt lat="43.51521" lon="2.3883">
        <ele>241.6</ele>
        <time>2021-11-28T10:43:37Z</time>
      </trkpt>
      <trkpt lat="43.51521" lon="2.38828">
        <ele>241.5</ele>
        <time>2021-11-28T10:43:38Z</time>
      </trkpt>
      <trkpt lat="43.5152" lon="2.38823">
        <ele>241.6</ele>
        <time>2021-11-28T10:43:40Z</time>
      </trkpt>
      <trkpt lat="43.51518" lon="2.38818">
        <ele>240.4</ele>
        <time>2021-11-28T10:43:41Z</time>
      </trkpt>
      <trkpt lat="43.51516" lon="2.38814">
        <ele>239.1</ele>
        <time>2021-11-28T10:43:43Z</time>
      </trkpt>
      <trkpt lat="43.51514" lon="2.3881">
        <ele>239</ele>
        <time>2021-11-28T10:43:44Z</time>
      </trkpt>
      <trkpt lat="43.51513" lon="2.38807">
        <ele>237.6</ele>
        <time>2021-11-28T10:43:45Z</time>
      </trkpt>
      <trkpt lat="43.51511" lon="2.38801">
        <ele>237.5</ele>
        <time>2021-11-28T10:43:46Z</time>
      </trkpt>
      <trkpt lat="43.51509" lon="2.38796">
        <ele>236.1</ele>
        <time>2021-11-28T10:43:48Z</time>
      </trkpt>
      <trkpt lat="43.51507" lon="2.38792">
        <ele>234.7</ele>
        <time>2021-11-28T10:43:49Z</time>
      </trkpt>
      <trkpt lat="43.51505" lon="2.38789">
        <ele>234.5</ele>
        <time>2021-11-28T10:43:51Z</time>
      </trkpt>
      <trkpt lat="43.51503" lon="2.38785">
        <ele>233</ele>
        <time>2021-11-28T10:43:52Z</time>
      </trkpt>
      <trkpt lat="43.51501" lon="2.38781">
        <ele>232.8</ele>
        <time>2021-11-28T10:43:53Z</time>
      </trkpt>
      <trkpt lat="43.51499" lon="2.38774">
        <ele>231.2</ele>
        <time>2021-11-28T10:43:55Z</time>
      </trkpt>
      <trkpt lat="43.51499" lon="2.38772">
        <ele>230.9</ele>
        <time>2021-11-28T10:43:56Z</time>
      </trkpt>
      <trkpt lat="43.51499" lon="2.38769">
        <ele>230.8</ele>
        <time>2021-11-28T10:43:57Z</time>
      </trkpt>
      <trkpt lat="43.51497" lon="2.3876">
        <ele>228.9</ele>
        <time>2021-11-28T10:43:59Z</time>
      </trkpt>
      <trkpt lat="43.51496" lon="2.38753">
        <ele>228.4</ele>
        <time>2021-11-28T10:44:00Z</time>
      </trkpt>
      <trkpt lat="43.51494" lon="2.38748">
        <ele>226.7</ele>
        <time>2021-11-28T10:44:01Z</time>
      </trkpt>
      <trkpt lat="43.51492" lon="2.38739">
        <ele>226.1</ele>
        <time>2021-11-28T10:44:03Z</time>
      </trkpt>
      <trkpt lat="43.51491" lon="2.38735">
        <ele>224.4</ele>
        <time>2021-11-28T10:44:04Z</time>
      </trkpt>
      <trkpt lat="43.51484" lon="2.38713">
        <ele>220.5</ele>
        <time>2021-11-28T10:44:05Z</time>
      </trkpt>
      <trkpt lat="43.51478" lon="2.38696">
        <ele>219.9</ele>
        <time>2021-11-28T10:44:07Z</time>
      </trkpt>
      <trkpt lat="43.51476" lon="2.38689">
        <ele>219.7</ele>
        <time>2021-11-28T10:44:08Z</time>
      </trkpt>
      <trkpt lat="43.51475" lon="2.38684">
        <ele>219.6</ele>
        <time>2021-11-28T10:44:09Z</time>
      </trkpt>
      <trkpt lat="43.51474" lon="2.38679">
        <ele>219.4</ele>
        <time>2021-11-28T10:44:11Z</time>
      </trkpt>
      <trkpt lat="43.51473" lon="2.38673">
        <ele>219.2</ele>
        <time>2021-11-28T10:44:12Z</time>
      </trkpt>
      <trkpt lat="43.51473" lon="2.38667">
        <ele>219</ele>
        <time>2021-11-28T10:44:13Z</time>
      </trkpt>
      <trkpt lat="43.51472" lon="2.38658">
        <ele>218.7</ele>
        <time>2021-11-28T10:44:14Z</time>
      </trkpt>
      <trkpt lat="43.51471" lon="2.3865">
        <ele>218.4</ele>
        <time>2021-11-28T10:44:16Z</time>
      </trkpt>
      <trkpt lat="43.5147" lon="2.38644">
        <ele>218.3</ele>
        <time>2021-11-28T10:44:18Z</time>
      </trkpt>
      <trkpt lat="43.51469" lon="2.38642">
        <ele>218.2</ele>
        <time>2021-11-28T10:44:19Z</time>
      </trkpt>
      <trkpt lat="43.51469" lon="2.38635">
        <ele>218</ele>
        <time>2021-11-28T10:44:21Z</time>
      </trkpt>
      <trkpt lat="43.51468" lon="2.38632">
        <ele>217.9</ele>
        <time>2021-11-28T10:44:22Z</time>
        <extensions>
          <visugpx:TrkExtension xmlns:visugpx="https://www.visugpx.com/editgpx/">
            <visugpx:node>1</visugpx:node>
            </visugpx:TrkExtension>
        </extensions>
      </trkpt>
      <trkpt lat="43.51468" lon="2.38644">
        <ele>217.4</ele>
      </trkpt>
      <trkpt lat="43.51445" lon="2.3881">
        <ele>220.2</ele>
      </trkpt>
      <trkpt lat="43.51441" lon="2.38824">
        <ele>220.5</ele>
      </trkpt>
      <trkpt lat="43.51432" lon="2.38835">
        <ele>220.6</ele>
      </trkpt>
      <trkpt lat="43.51418" lon="2.38846">
        <ele>220.5</ele>
      </trkpt>
      <trkpt lat="43.51267" lon="2.38937">
        <ele>220.2</ele>
      </trkpt>
      <trkpt lat="43.51251" lon="2.38942">
        <ele>220.7</ele>
      </trkpt>
      <trkpt lat="43.51231" lon="2.38944">
        <ele>221.6</ele>
      </trkpt>
      <trkpt lat="43.51184" lon="2.38939">
        <ele>223.8</ele>
      </trkpt>
      <trkpt lat="43.51137" lon="2.38926">
        <ele>226.4</ele>
      </trkpt>
      <trkpt lat="43.5112" lon="2.38927">
        <ele>227.4</ele>
      </trkpt>
      <trkpt lat="43.51102" lon="2.38931">
        <ele>228.2</ele>
      </trkpt>
      <trkpt lat="43.51093" lon="2.38937">
        <ele>228.6</ele>
      </trkpt>
      <trkpt lat="43.51086" lon="2.38948">
        <ele>229</ele>
      </trkpt>
      <trkpt lat="43.51063" lon="2.39006">
        <ele>229.5</ele>
      </trkpt>
      <trkpt lat="43.51053" lon="2.39037">
        <ele>230</ele>
      </trkpt>
      <trkpt lat="43.51048" lon="2.39066">
        <ele>230.3</ele>
      </trkpt>
      <trkpt lat="43.51045" lon="2.39119">
        <ele>230.8</ele>
      </trkpt>
      <trkpt lat="43.51045" lon="2.39229">
        <ele>229.2</ele>
        <extensions>
          <visugpx:TrkExtension xmlns:visugpx="https://www.visugpx.com/editgpx/">
            <visugpx:node>2</visugpx:node>
            </visugpx:TrkExtension>
        </extensions>
      </trkpt>
      <trkpt lat="43.51037" lon="2.39239">
        <ele>227.7</ele>
      </trkpt>
      <trkpt lat="43.5102" lon="2.39258">
        <ele>228</ele>
      </trkpt>
      <trkpt lat="43.50989" lon="2.39293">
        <ele>229.5</ele>
      </trkpt>
      <trkpt lat="43.50945" lon="2.3934">
        <ele>231.5</ele>
      </trkpt>
      <trkpt lat="43.50868" lon="2.39425">
        <ele>236.2</ele>
      </trkpt>
      <trkpt lat="43.50863" lon="2.39432">
        <ele>236.5</ele>
      </trkpt>
      <trkpt lat="43.50852" lon="2.39439">
        <ele>236.9</ele>
      </trkpt>
      <trkpt lat="43.50819" lon="2.39461">
        <ele>237.8</ele>
      </trkpt>
      <trkpt lat="43.50812" lon="2.39465">
        <ele>237.9</ele>
      </trkpt>
      <trkpt lat="43.50784" lon="2.39498">
        <ele>238.9</ele>
      </trkpt>
      <trkpt lat="43.50728" lon="2.39588">
        <ele>240</ele>
      </trkpt>
      <trkpt lat="43.50715" lon="2.39609">
        <ele>240</ele>
      </trkpt>
      <trkpt lat="43.50692" lon="2.39634">
        <ele>240</ele>
      </trkpt>
      <trkpt lat="43.50689" lon="2.39635">
        <ele>240</ele>
      </trkpt>
      <trkpt lat="43.50687" lon="2.39637">
        <ele>240</ele>
      </trkpt>
      <trkpt lat="43.50685" lon="2.3964">
        <ele>240</ele>
      </trkpt>
      <trkpt lat="43.50683" lon="2.39645">
        <ele>240.2</ele>
      </trkpt>
      <trkpt lat="43.50683" lon="2.3965">
        <ele>240.4</ele>
      </trkpt>
      <trkpt lat="43.50683" lon="2.39653">
        <ele>240.5</ele>
      </trkpt>
      <trkpt lat="43.50684" lon="2.39656">
        <ele>240.6</ele>
      </trkpt>
      <trkpt lat="43.50687" lon="2.3966">
        <ele>240.8</ele>
      </trkpt>
      <trkpt lat="43.50689" lon="2.39662">
        <ele>240.8</ele>
      </trkpt>
      <trkpt lat="43.50693" lon="2.39663">
        <ele>240.9</ele>
      </trkpt>
      <trkpt lat="43.50695" lon="2.39663">
        <ele>240.9</ele>
      </trkpt>
      <trkpt lat="43.50698" lon="2.39662">
        <ele>240.9</ele>
      </trkpt>
      <trkpt lat="43.507" lon="2.3966">
        <ele>240.8</ele>
      </trkpt>
      <trkpt lat="43.50702" lon="2.39657">
        <ele>240.7</ele>
      </trkpt>
      <trkpt lat="43.50703" lon="2.39654">
        <ele>240.7</ele>
      </trkpt>
      <trkpt lat="43.50704" lon="2.39649">
        <ele>240.6</ele>
      </trkpt>
      <trkpt lat="43.50704" lon="2.39647">
        <ele>240.5</ele>
      </trkpt>
      <trkpt lat="43.50703" lon="2.39643">
        <ele>240.4</ele>
      </trkpt>
      <trkpt lat="43.50707" lon="2.3963">
        <ele>240.3</ele>
      </trkpt>
      <trkpt lat="43.50715" lon="2.3961">
        <ele>240</ele>
        <extensions>
          <visugpx:TrkExtension xmlns:visugpx="https://www.visugpx.com/editgpx/">
            <visugpx:node>3</visugpx:node>
            </visugpx:TrkExtension>
        </extensions>
      </trkpt>
      <trkpt lat="43.50715" lon="2.39609">
        <ele>240</ele>
      </trkpt>
      <trkpt lat="43.50692" lon="2.39634">
        <ele>240</ele>
      </trkpt>
      <trkpt lat="43.50689" lon="2.39635">
        <ele>240</ele>
      </trkpt>
      <trkpt lat="43.50687" lon="2.39637">
        <ele>240</ele>
      </trkpt>
      <trkpt lat="43.50685" lon="2.3964">
        <ele>240</ele>
      </trkpt>
      <trkpt lat="43.50683" lon="2.39645">
        <ele>240.2</ele>
      </trkpt>
      <trkpt lat="43.50683" lon="2.3965">
        <ele>240.4</ele>
      </trkpt>
      <trkpt lat="43.50683" lon="2.39653">
        <ele>240.5</ele>
      </trkpt>
      <trkpt lat="43.50684" lon="2.39656">
        <ele>240.6</ele>
      </trkpt>
      <trkpt lat="43.50687" lon="2.3966">
        <ele>240.8</ele>
      </trkpt>
      <trkpt lat="43.50689" lon="2.39662">
        <ele>240.8</ele>
      </trkpt>
      <trkpt lat="43.50693" lon="2.39663">
        <ele>240.9</ele>
      </trkpt>
      <trkpt lat="43.50695" lon="2.39663">
        <ele>240.9</ele>
      </trkpt>
      <trkpt lat="43.50698" lon="2.39662">
        <ele>240.9</ele>
      </trkpt>
      <trkpt lat="43.507" lon="2.3966">
        <ele>240.8</ele>
      </trkpt>
      <trkpt lat="43.50731" lon="2.39658">
        <ele>241.2</ele>
      </trkpt>
      <trkpt lat="43.50747" lon="2.39657">
        <ele>241.6</ele>
      </trkpt>
      <trkpt lat="43.50762" lon="2.39655">
        <ele>241.6</ele>
      </trkpt>
      <trkpt lat="43.50779" lon="2.39653">
        <ele>241.6</ele>
      </trkpt>
      <trkpt lat="43.50833" lon="2.39647">
        <ele>243.3</ele>
      </trkpt>
      <trkpt lat="43.50851" lon="2.39646">
        <ele>243.9</ele>
      </trkpt>
      <trkpt lat="43.5087" lon="2.39646">
        <ele>244.4</ele>
      </trkpt>
      <trkpt lat="43.50882" lon="2.3965">
        <ele>245</ele>
      </trkpt>
      <trkpt lat="43.50904" lon="2.39665">
        <ele>246.3</ele>
      </trkpt>
      <trkpt lat="43.51092" lon="2.3982">
        <ele>251.7</ele>
      </trkpt>
      <trkpt lat="43.51111" lon="2.39834">
        <ele>252.1</ele>
      </trkpt>
      <trkpt lat="43.51218" lon="2.39927">
        <ele>255.6</ele>
        <extensions>
          <visugpx:TrkExtension xmlns:visugpx="https://www.visugpx.com/editgpx/">
            <visugpx:node>4</visugpx:node>
            </visugpx:TrkExtension>
        </extensions>
      </trkpt>
      <trkpt lat="43.51242" lon="2.39948">
        <ele>257.7</ele>
      </trkpt>
      <trkpt lat="43.51262" lon="2.3996">
        <ele>258.5</ele>
      </trkpt>
      <trkpt lat="43.51286" lon="2.39967">
        <ele>259.2</ele>
      </trkpt>
      <trkpt lat="43.5135" lon="2.39969">
        <ele>257.5</ele>
      </trkpt>
      <trkpt lat="43.51379" lon="2.39967">
        <ele>254</ele>
      </trkpt>
      <trkpt lat="43.51397" lon="2.39965">
        <ele>251.9</ele>
      </trkpt>
      <trkpt lat="43.51444" lon="2.39946">
        <ele>254</ele>
      </trkpt>
      <trkpt lat="43.51477" lon="2.39943">
        <ele>257.3</ele>
      </trkpt>
      <trkpt lat="43.51489" lon="2.39938">
        <ele>258</ele>
      </trkpt>
      <trkpt lat="43.51497" lon="2.3993">
        <ele>259.1</ele>
      </trkpt>
      <trkpt lat="43.51504" lon="2.39921">
        <ele>260.1</ele>
      </trkpt>
      <trkpt lat="43.51512" lon="2.399">
        <ele>261.7</ele>
      </trkpt>
      <trkpt lat="43.5152" lon="2.39871">
        <ele>264.1</ele>
      </trkpt>
      <trkpt lat="43.51526" lon="2.3986">
        <ele>265.3</ele>
      </trkpt>
      <trkpt lat="43.51535" lon="2.39851">
        <ele>266.9</ele>
      </trkpt>
      <trkpt lat="43.51544" lon="2.39847">
        <ele>267.5</ele>
      </trkpt>
      <trkpt lat="43.51562" lon="2.39847">
        <ele>268.1</ele>
      </trkpt>
      <trkpt lat="43.51579" lon="2.39852">
        <ele>269.2</ele>
      </trkpt>
      <trkpt lat="43.51655" lon="2.39867">
        <ele>277.4</ele>
      </trkpt>
      <trkpt lat="43.51658" lon="2.39868">
        <ele>277.7</ele>
      </trkpt>
      <trkpt lat="43.51668" lon="2.39868">
        <ele>278.9</ele>
      </trkpt>
      <trkpt lat="43.51675" lon="2.39859">
        <ele>280.3</ele>
      </trkpt>
      <trkpt lat="43.51678" lon="2.39852">
        <ele>281</ele>
      </trkpt>
      <trkpt lat="43.51686" lon="2.39791">
        <ele>284.9</ele>
      </trkpt>
      <trkpt lat="43.5169" lon="2.39782">
        <ele>285.5</ele>
      </trkpt>
      <trkpt lat="43.51695" lon="2.39776">
        <ele>286.1</ele>
      </trkpt>
      <trkpt lat="43.51703" lon="2.39771">
        <ele>286.8</ele>
      </trkpt>
      <trkpt lat="43.51767" lon="2.39744">
        <ele>293.6</ele>
      </trkpt>
      <trkpt lat="43.5182" lon="2.39726">
        <ele>296.3</ele>
      </trkpt>
      <trkpt lat="43.51832" lon="2.39724">
        <ele>297</ele>
      </trkpt>
      <trkpt lat="43.51844" lon="2.39724">
        <ele>297.5</ele>
      </trkpt>
      <trkpt lat="43.52007" lon="2.39778">
        <ele>312.3</ele>
      </trkpt>
      <trkpt lat="43.52023" lon="2.39787">
        <ele>312.1</ele>
      </trkpt>
      <trkpt lat="43.5203" lon="2.39795">
        <ele>312.7</ele>
      </trkpt>
      <trkpt lat="43.52035" lon="2.39807">
        <ele>313.8</ele>
      </trkpt>
      <trkpt lat="43.52036" lon="2.39813">
        <ele>314</ele>
      </trkpt>
      <trkpt lat="43.52042" lon="2.39839">
        <ele>315.4</ele>
      </trkpt>
      <trkpt lat="43.52064" lon="2.39952">
        <ele>325.8</ele>
      </trkpt>
      <trkpt lat="43.52063" lon="2.39978">
        <ele>328.7</ele>
      </trkpt>
      <trkpt lat="43.52058" lon="2.39996">
        <ele>329.9</ele>
      </trkpt>
      <trkpt lat="43.52039" lon="2.4005">
        <ele>333.6</ele>
      </trkpt>
      <trkpt lat="43.52038" lon="2.40066">
        <ele>334.5</ele>
      </trkpt>
      <trkpt lat="43.52043" lon="2.40082">
        <ele>335.6</ele>
      </trkpt>
      <trkpt lat="43.52167" lon="2.40318">
        <ele>356.1</ele>
      </trkpt>
      <trkpt lat="43.52175" lon="2.40342">
        <ele>357.9</ele>
      </trkpt>
      <trkpt lat="43.522" lon="2.40467">
        <ele>364.2</ele>
      </trkpt>
      <trkpt lat="43.52208" lon="2.40487">
        <ele>366.2</ele>
      </trkpt>
      <trkpt lat="43.52218" lon="2.405">
        <ele>368.9</ele>
      </trkpt>
      <trkpt lat="43.5228" lon="2.40572">
        <ele>377.3</ele>
      </trkpt>
      <trkpt lat="43.52292" lon="2.40589">
        <ele>379</ele>
      </trkpt>
      <trkpt lat="43.523" lon="2.40607">
        <ele>380.2</ele>
      </trkpt>
      <trkpt lat="43.52307" lon="2.40637">
        <ele>381.2</ele>
      </trkpt>
      <trkpt lat="43.52321" lon="2.40708">
        <ele>386.1</ele>
      </trkpt>
      <trkpt lat="43.52325" lon="2.40716">
        <ele>387.4</ele>
      </trkpt>
      <trkpt lat="43.52332" lon="2.40716">
        <ele>389.2</ele>
      </trkpt>
      <trkpt lat="43.52338" lon="2.4071">
        <ele>390.1</ele>
      </trkpt>
      <trkpt lat="43.52382" lon="2.40642">
        <ele>393</ele>
      </trkpt>
      <trkpt lat="43.52392" lon="2.40631">
        <ele>393.9</ele>
      </trkpt>
      <trkpt lat="43.52402" lon="2.40623">
        <ele>394.7</ele>
      </trkpt>
      <trkpt lat="43.52462" lon="2.40614">
        <ele>400.5</ele>
      </trkpt>
      <trkpt lat="43.52472" lon="2.40612">
        <ele>401</ele>
      </trkpt>
      <trkpt lat="43.52543" lon="2.40606">
        <ele>409.4</ele>
      </trkpt>
      <trkpt lat="43.52555" lon="2.40608">
        <ele>410.7</ele>
      </trkpt>
      <trkpt lat="43.52654" lon="2.4065">
        <ele>418.8</ele>
      </trkpt>
      <trkpt lat="43.5266" lon="2.40652">
        <ele>418.8</ele>
      </trkpt>
      <trkpt lat="43.52664" lon="2.40652">
        <ele>419</ele>
      </trkpt>
      <trkpt lat="43.52846" lon="2.40643">
        <ele>437.7</ele>
      </trkpt>
      <trkpt lat="43.52854" lon="2.40639">
        <ele>438.5</ele>
      </trkpt>
      <trkpt lat="43.5286" lon="2.40631">
        <ele>439.5</ele>
      </trkpt>
      <trkpt lat="43.52864" lon="2.40617">
        <ele>441</ele>
      </trkpt>
      <trkpt lat="43.52864" lon="2.406">
        <ele>442.3</ele>
      </trkpt>
      <trkpt lat="43.52859" lon="2.40558">
        <ele>444.6</ele>
      </trkpt>
      <trkpt lat="43.5286" lon="2.40536">
        <ele>445.6</ele>
        <extensions>
          <visugpx:TrkExtension xmlns:visugpx="https://www.visugpx.com/editgpx/">
            <visugpx:node>5</visugpx:node>
            </visugpx:TrkExtension>
        </extensions>
      </trkpt>
      <trkpt lat="43.5286" lon="2.40515">
        <ele>446.3</ele>
      </trkpt>
      <trkpt lat="43.52866" lon="2.40502">
        <ele>447.5</ele>
      </trkpt>
      <trkpt lat="43.52876" lon="2.4049">
        <ele>448.2</ele>
      </trkpt>
      <trkpt lat="43.52895" lon="2.40475">
        <ele>449.5</ele>
      </trkpt>
      <trkpt lat="43.52922" lon="2.40455">
        <ele>450.3</ele>
      </trkpt>
      <trkpt lat="43.52933" lon="2.40449">
        <ele>451</ele>
      </trkpt>
      <trkpt lat="43.52948" lon="2.40444">
        <ele>452.1</ele>
      </trkpt>
      <trkpt lat="43.52975" lon="2.4044">
        <ele>452.8</ele>
      </trkpt>
      <trkpt lat="43.53014" lon="2.40436">
        <ele>454.4</ele>
      </trkpt>
      <trkpt lat="43.53033" lon="2.40443">
        <ele>455.9</ele>
      </trkpt>
      <trkpt lat="43.53042" lon="2.40452">
        <ele>456.3</ele>
      </trkpt>
      <trkpt lat="43.53054" lon="2.40469">
        <ele>456.9</ele>
      </trkpt>
      <trkpt lat="43.5309" lon="2.40533">
        <ele>456.8</ele>
      </trkpt>
      <trkpt lat="43.53104" lon="2.40544">
        <ele>456.7</ele>
      </trkpt>
      <trkpt lat="43.53118" lon="2.4055">
        <ele>456.8</ele>
      </trkpt>
      <trkpt lat="43.53134" lon="2.40551">
        <ele>456.7</ele>
      </trkpt>
      <trkpt lat="43.53183" lon="2.4054">
        <ele>457.3</ele>
      </trkpt>
      <trkpt lat="43.53217" lon="2.40531">
        <ele>458.9</ele>
      </trkpt>
      <trkpt lat="43.53226" lon="2.40528">
        <ele>459.4</ele>
      </trkpt>
      <trkpt lat="43.53233" lon="2.40525">
        <ele>460</ele>
      </trkpt>
      <trkpt lat="43.5324" lon="2.40519">
        <ele>460.3</ele>
      </trkpt>
      <trkpt lat="43.53254" lon="2.40499">
        <ele>460.5</ele>
      </trkpt>
      <trkpt lat="43.53271" lon="2.4047">
        <ele>461.3</ele>
      </trkpt>
      <trkpt lat="43.53278" lon="2.40462">
        <ele>462</ele>
      </trkpt>
      <trkpt lat="43.53348" lon="2.40315">
        <ele>463.6</ele>
      </trkpt>
      <trkpt lat="43.53361" lon="2.40294">
        <ele>463.6</ele>
      </trkpt>
      <trkpt lat="43.5337" lon="2.40283">
        <ele>463.6</ele>
      </trkpt>
      <trkpt lat="43.53378" lon="2.40276">
        <ele>463.5</ele>
      </trkpt>
      <trkpt lat="43.53386" lon="2.40272">
        <ele>463.5</ele>
      </trkpt>
      <trkpt lat="43.534" lon="2.40271">
        <ele>462.5</ele>
      </trkpt>
      <trkpt lat="43.53419" lon="2.40276">
        <ele>461.5</ele>
      </trkpt>
      <trkpt lat="43.53452" lon="2.40293">
        <ele>460.4</ele>
      </trkpt>
      <trkpt lat="43.53465" lon="2.40296">
        <ele>459.4</ele>
      </trkpt>
      <trkpt lat="43.53492" lon="2.40294">
        <ele>455.5</ele>
      </trkpt>
      <trkpt lat="43.53506" lon="2.40295">
        <ele>453.9</ele>
      </trkpt>
      <trkpt lat="43.5352" lon="2.40302">
        <ele>453.4</ele>
      </trkpt>
      <trkpt lat="43.5354" lon="2.40319">
        <ele>453.4</ele>
      </trkpt>
      <trkpt lat="43.53547" lon="2.40322">
        <ele>453</ele>
      </trkpt>
      <trkpt lat="43.53558" lon="2.40321">
        <ele>452.1</ele>
      </trkpt>
      <trkpt lat="43.53571" lon="2.40311">
        <ele>451.7</ele>
      </trkpt>
      <trkpt lat="43.53579" lon="2.40303">
        <ele>451.8</ele>
      </trkpt>
      <trkpt lat="43.53585" lon="2.40291">
        <ele>452.2</ele>
      </trkpt>
      <trkpt lat="43.53587" lon="2.40277">
        <ele>452.7</ele>
      </trkpt>
      <trkpt lat="43.5359" lon="2.40261">
        <ele>453.9</ele>
      </trkpt>
      <trkpt lat="43.53592" lon="2.4022">
        <ele>455.4</ele>
      </trkpt>
      <trkpt lat="43.53587" lon="2.40196">
        <ele>456.6</ele>
      </trkpt>
      <trkpt lat="43.53581" lon="2.40187">
        <ele>456.4</ele>
      </trkpt>
      <trkpt lat="43.53567" lon="2.40172">
        <ele>456</ele>
      </trkpt>
      <trkpt lat="43.5356" lon="2.40159">
        <ele>456.7</ele>
      </trkpt>
      <trkpt lat="43.53559" lon="2.40147">
        <ele>458.2</ele>
      </trkpt>
      <trkpt lat="43.5356" lon="2.40132">
        <ele>459.3</ele>
      </trkpt>
      <trkpt lat="43.53563" lon="2.4012">
        <ele>459.3</ele>
      </trkpt>
      <trkpt lat="43.53571" lon="2.40108">
        <ele>460</ele>
      </trkpt>
      <trkpt lat="43.53579" lon="2.40103">
        <ele>460.7</ele>
      </trkpt>
      <trkpt lat="43.53589" lon="2.40101">
        <ele>461.8</ele>
      </trkpt>
      <trkpt lat="43.53597" lon="2.40103">
        <ele>462.5</ele>
      </trkpt>
      <trkpt lat="43.53611" lon="2.4011">
        <ele>464</ele>
      </trkpt>
      <trkpt lat="43.53656" lon="2.40141">
        <ele>469.2</ele>
      </trkpt>
      <trkpt lat="43.53667" lon="2.40144">
        <ele>470</ele>
      </trkpt>
      <trkpt lat="43.53692" lon="2.40145">
        <ele>472.7</ele>
      </trkpt>
      <trkpt lat="43.53711" lon="2.40139">
        <ele>474.2</ele>
      </trkpt>
      <trkpt lat="43.53752" lon="2.40116">
        <ele>476.3</ele>
      </trkpt>
      <trkpt lat="43.53771" lon="2.40102">
        <ele>477.3</ele>
      </trkpt>
      <trkpt lat="43.53778" lon="2.40097">
        <ele>477.5</ele>
      </trkpt>
      <trkpt lat="43.5381" lon="2.4007">
        <ele>478.8</ele>
      </trkpt>
      <trkpt lat="43.53816" lon="2.40064">
        <ele>478.9</ele>
      </trkpt>
      <trkpt lat="43.53828" lon="2.40052">
        <ele>479.5</ele>
      </trkpt>
      <trkpt lat="43.53891" lon="2.3999">
        <ele>482.4</ele>
      </trkpt>
      <trkpt lat="43.5393" lon="2.39954">
        <ele>484.5</ele>
      </trkpt>
      <trkpt lat="43.53953" lon="2.39934">
        <ele>485.2</ele>
      </trkpt>
      <trkpt lat="43.53989" lon="2.39912">
        <ele>486.2</ele>
        <extensions>
          <visugpx:TrkExtension xmlns:visugpx="https://www.visugpx.com/editgpx/">
            <visugpx:node>6</visugpx:node>
            </visugpx:TrkExtension>
        </extensions>
      </trkpt>
      <trkpt lat="43.54007" lon="2.39901">
        <ele>486.5</ele>
      </trkpt>
      <trkpt lat="43.54013" lon="2.39918">
        <ele>485.5</ele>
      </trkpt>
      <trkpt lat="43.54015" lon="2.39932">
        <ele>484.7</ele>
      </trkpt>
      <trkpt lat="43.5401" lon="2.39963">
        <ele>482.7</ele>
      </trkpt>
      <trkpt lat="43.54016" lon="2.40023">
        <ele>480.6</ele>
      </trkpt>
      <trkpt lat="43.54021" lon="2.40035">
        <ele>480.8</ele>
      </trkpt>
      <trkpt lat="43.54079" lon="2.40141">
        <ele>484.7</ele>
      </trkpt>
      <trkpt lat="43.54099" lon="2.40164">
        <ele>486.1</ele>
      </trkpt>
      <trkpt lat="43.54211" lon="2.40247">
        <ele>494.6</ele>
      </trkpt>
      <trkpt lat="43.54359" lon="2.40365">
        <ele>506.8</ele>
      </trkpt>
      <trkpt lat="43.5443" lon="2.40412">
        <ele>510.6</ele>
      </trkpt>
      <trkpt lat="43.54512" lon="2.40448">
        <ele>513.4</ele>
      </trkpt>
      <trkpt lat="43.54521" lon="2.40445">
        <ele>513.8</ele>
      </trkpt>
      <trkpt lat="43.54531" lon="2.40447">
        <ele>514.2</ele>
      </trkpt>
      <trkpt lat="43.54583" lon="2.40466">
        <ele>517</ele>
      </trkpt>
      <trkpt lat="43.54637" lon="2.40482">
        <ele>519.5</ele>
      </trkpt>
      <trkpt lat="43.5467" lon="2.40495">
        <ele>520.3</ele>
      </trkpt>
      <trkpt lat="43.54699" lon="2.40495">
        <ele>521.5</ele>
        <extensions>
          <visugpx:TrkExtension xmlns:visugpx="https://www.visugpx.com/editgpx/">
            <visugpx:node>7</visugpx:node>
            </visugpx:TrkExtension>
        </extensions>
      </trkpt>
      <trkpt lat="43.54733" lon="2.40495">
        <ele>523.4</ele>
      </trkpt>
      <trkpt lat="43.54774" lon="2.40494">
        <ele>524.9</ele>
      </trkpt>
      <trkpt lat="43.54796" lon="2.40526">
        <ele>526.3</ele>
      </trkpt>
      <trkpt lat="43.54845" lon="2.40589">
        <ele>529</ele>
      </trkpt>
      <trkpt lat="43.54888" lon="2.40638">
        <ele>533.9</ele>
      </trkpt>
      <trkpt lat="43.54912" lon="2.40673">
        <ele>536.9</ele>
      </trkpt>
      <trkpt lat="43.54922" lon="2.4068">
        <ele>537.8</ele>
      </trkpt>
      <trkpt lat="43.54931" lon="2.40682">
        <ele>538.4</ele>
      </trkpt>
      <trkpt lat="43.54948" lon="2.4068">
        <ele>539.1</ele>
      </trkpt>
      <trkpt lat="43.54973" lon="2.40684">
        <ele>540.3</ele>
      </trkpt>
      <trkpt lat="43.55013" lon="2.40704">
        <ele>542</ele>
      </trkpt>
      <trkpt lat="43.5507" lon="2.4074">
        <ele>546.7</ele>
      </trkpt>
      <trkpt lat="43.55118" lon="2.40761">
        <ele>549.5</ele>
      </trkpt>
      <trkpt lat="43.55154" lon="2.40772">
        <ele>551</ele>
      </trkpt>
      <trkpt lat="43.5517" lon="2.40776">
        <ele>551.9</ele>
      </trkpt>
      <trkpt lat="43.55191" lon="2.40779">
        <ele>553</ele>
      </trkpt>
      <trkpt lat="43.55231" lon="2.40784">
        <ele>556.9</ele>
      </trkpt>
      <trkpt lat="43.55316" lon="2.40789">
        <ele>561</ele>
      </trkpt>
      <trkpt lat="43.55325" lon="2.40791">
        <ele>560.8</ele>
        <extensions>
          <visugpx:TrkExtension xmlns:visugpx="https://www.visugpx.com/editgpx/">
            <visugpx:node>8</visugpx:node>
            </visugpx:TrkExtension>
        </extensions>
      </trkpt>
      <trkpt lat="43.55378" lon="2.40803">
        <ele>559.3</ele>
      </trkpt>
      <trkpt lat="43.55394" lon="2.4081">
        <ele>558.8</ele>
      </trkpt>
      <trkpt lat="43.55425" lon="2.40832">
        <ele>556.7</ele>
      </trkpt>
      <trkpt lat="43.55448" lon="2.40839">
        <ele>556</ele>
      </trkpt>
      <trkpt lat="43.55474" lon="2.40841">
        <ele>555.8</ele>
      </trkpt>
      <trkpt lat="43.55488" lon="2.40837">
        <ele>556.4</ele>
      </trkpt>
      <trkpt lat="43.55478" lon="2.40829">
        <ele>556.3</ele>
        <extensions>
          <visugpx:TrkExtension xmlns:visugpx="https://www.visugpx.com/editgpx/">
            <visugpx:node>9</visugpx:node>
            </visugpx:TrkExtension>
        </extensions>
      </trkpt>
      <trkpt lat="43.55398" lon="2.40767">
        <ele>557.7</ele>
      </trkpt>
      <trkpt lat="43.55384" lon="2.40754">
        <ele>557.3</ele>
      </trkpt>
      <trkpt lat="43.5532" lon="2.40671">
        <ele>551</ele>
      </trkpt>
      <trkpt lat="43.55306" lon="2.4066">
        <ele>550</ele>
      </trkpt>
      <trkpt lat="43.55291" lon="2.40656">
        <ele>548.9</ele>
      </trkpt>
      <trkpt lat="43.55235" lon="2.40665">
        <ele>545.8</ele>
      </trkpt>
      <trkpt lat="43.55188" lon="2.40669">
        <ele>544.6</ele>
      </trkpt>
      <trkpt lat="43.55181" lon="2.40666">
        <ele>544.9</ele>
      </trkpt>
      <trkpt lat="43.55178" lon="2.40658">
        <ele>544.9</ele>
      </trkpt>
      <trkpt lat="43.55178" lon="2.40648">
        <ele>544.5</ele>
      </trkpt>
      <trkpt lat="43.55183" lon="2.40637">
        <ele>543.8</ele>
      </trkpt>
      <trkpt lat="43.55223" lon="2.40591">
        <ele>540.3</ele>
      </trkpt>
      <trkpt lat="43.55248" lon="2.40563">
        <ele>537.7</ele>
      </trkpt>
      <trkpt lat="43.5526" lon="2.40545">
        <ele>536.5</ele>
      </trkpt>
      <trkpt lat="43.55264" lon="2.40532">
        <ele>535.7</ele>
      </trkpt>
      <trkpt lat="43.55264" lon="2.4052">
        <ele>535.1</ele>
      </trkpt>
      <trkpt lat="43.55262" lon="2.40509">
        <ele>534.6</ele>
      </trkpt>
      <trkpt lat="43.55179" lon="2.40217">
        <ele>525.9</ele>
      </trkpt>
      <trkpt lat="43.55166" lon="2.40186">
        <ele>525</ele>
        <extensions>
          <visugpx:TrkExtension xmlns:visugpx="https://www.visugpx.com/editgpx/">
            <visugpx:node>10</visugpx:node>
            </visugpx:TrkExtension>
        </extensions>
      </trkpt>
      <trkpt lat="43.55146" lon="2.40142">
        <ele>523.3</ele>
      </trkpt>
      <trkpt lat="43.55091" lon="2.40057">
        <ele>521.1</ele>
      </trkpt>
      <trkpt lat="43.55051" lon="2.39995">
        <ele>519.4</ele>
      </trkpt>
      <trkpt lat="43.55041" lon="2.39977">
        <ele>518</ele>
      </trkpt>
      <trkpt lat="43.55036" lon="2.39959">
        <ele>517.3</ele>
      </trkpt>
      <trkpt lat="43.55034" lon="2.39938">
        <ele>516.4</ele>
      </trkpt>
      <trkpt lat="43.5504" lon="2.39882">
        <ele>514.6</ele>
      </trkpt>
      <trkpt lat="43.55059" lon="2.39812">
        <ele>513.4</ele>
      </trkpt>
      <trkpt lat="43.55058" lon="2.39801">
        <ele>512.6</ele>
      </trkpt>
      <trkpt lat="43.55053" lon="2.39793">
        <ele>511.5</ele>
      </trkpt>
      <trkpt lat="43.55048" lon="2.39791">
        <ele>511</ele>
      </trkpt>
      <trkpt lat="43.5498" lon="2.39799">
        <ele>507.3</ele>
      </trkpt>
      <trkpt lat="43.54966" lon="2.39808">
        <ele>506.6</ele>
      </trkpt>
      <trkpt lat="43.54939" lon="2.39843">
        <ele>505.7</ele>
      </trkpt>
      <trkpt lat="43.54928" lon="2.39849">
        <ele>505.1</ele>
      </trkpt>
      <trkpt lat="43.5492" lon="2.39848">
        <ele>504.7</ele>
      </trkpt>
      <trkpt lat="43.54882" lon="2.39823">
        <ele>503.5</ele>
      </trkpt>
      <trkpt lat="43.54869" lon="2.39812">
        <ele>503.2</ele>
      </trkpt>
      <trkpt lat="43.54858" lon="2.39798">
        <ele>502.6</ele>
      </trkpt>
      <trkpt lat="43.54846" lon="2.39783">
        <ele>502.4</ele>
      </trkpt>
      <trkpt lat="43.54818" lon="2.39736">
        <ele>502.6</ele>
        <extensions>
          <visugpx:TrkExtension xmlns:visugpx="https://www.visugpx.com/editgpx/">
            <visugpx:node>11</visugpx:node>
            </visugpx:TrkExtension>
        </extensions>
      </trkpt>
      <trkpt lat="43.54812" lon="2.39725">
        <ele>502.6</ele>
      </trkpt>
      <trkpt lat="43.54803" lon="2.39706">
        <ele>503.2</ele>
      </trkpt>
      <trkpt lat="43.548" lon="2.39694">
        <ele>503.4</ele>
      </trkpt>
      <trkpt lat="43.54798" lon="2.39682">
        <ele>503.7</ele>
      </trkpt>
      <trkpt lat="43.54784" lon="2.39692">
        <ele>504.6</ele>
      </trkpt>
      <trkpt lat="43.54726" lon="2.39764">
        <ele>505.6</ele>
      </trkpt>
      <trkpt lat="43.54717" lon="2.3977">
        <ele>505.2</ele>
      </trkpt>
      <trkpt lat="43.54704" lon="2.39772">
        <ele>505.1</ele>
      </trkpt>
      <trkpt lat="43.54658" lon="2.39761">
        <ele>503.9</ele>
        <extensions>
          <visugpx:TrkExtension xmlns:visugpx="https://www.visugpx.com/editgpx/">
            <visugpx:node>12</visugpx:node>
            </visugpx:TrkExtension>
        </extensions>
      </trkpt>
      <trkpt lat="43.54416" lon="2.39729">
        <ele>497.8</ele>
        <extensions>
          <visugpx:TrkExtension xmlns:visugpx="https://www.visugpx.com/editgpx/">
            <visugpx:node>13</visugpx:node>
            </visugpx:TrkExtension>
        </extensions>
      </trkpt>
      <trkpt lat="43.54305" lon="2.39727">
        <ele>496.6</ele>
      </trkpt>
      <trkpt lat="43.54271" lon="2.39736">
        <ele>495</ele>
      </trkpt>
      <trkpt lat="43.54234" lon="2.39722">
        <ele>495.4</ele>
      </trkpt>
      <trkpt lat="43.5418" lon="2.39676">
        <ele>494</ele>
      </trkpt>
      <trkpt lat="43.54179" lon="2.39676">
        <ele>493.9</ele>
        <extensions>
          <visugpx:TrkExtension xmlns:visugpx="https://www.visugpx.com/editgpx/">
            <visugpx:node>14</visugpx:node>
            </visugpx:TrkExtension>
        </extensions>
      </trkpt>
      <trkpt lat="43.54111" lon="2.39628">
        <ele>487.6</ele>
      </trkpt>
      <trkpt lat="43.54082" lon="2.39608">
        <ele>484.8</ele>
        <extensions>
          <visugpx:TrkExtension xmlns:visugpx="https://www.visugpx.com/editgpx/">
            <visugpx:node>15</visugpx:node>
            </visugpx:TrkExtension>
        </extensions>
      </trkpt>
      <trkpt lat="43.54046" lon="2.39584">
        <ele>482.7</ele>
      </trkpt>
      <trkpt lat="43.54018" lon="2.39544">
        <ele>478.6</ele>
      </trkpt>
      <trkpt lat="43.54017" lon="2.39543">
        <ele>478.5</ele>
        <extensions>
          <visugpx:TrkExtension xmlns:visugpx="https://www.visugpx.com/editgpx/">
            <visugpx:node>16</visugpx:node>
            </visugpx:TrkExtension>
        </extensions>
      </trkpt>
    </trkseg>
  </trk>
</gpx>